<- Previous Day | Today | Next Day ->

All Data for 23 February 2020

 

Time A - D Temp A - D Dew Point A - D Humidity A - D Pressure A - D Wind A - D Wind Dir Gust A - D Rain Rate A - D Rain Total
00:00 10.5 9.9 96 1021.0 22.1 S 28.9 0.8 0.0
00:01 10.5 9.9 96 1021.0 22.1 S 28.9 0.8 0.0
00:02 10.5 9.9 96 1020.9 20.6 S 28.9 0.8 0.0
00:03 10.5 9.9 96 1021.0 18.3 SE 28.9 0.8 0.0
00:04 10.5 9.9 96 1020.9 25.1 SE 28.9 0.0 0.0
00:05 10.5 9.9 96 1020.7 25.1 S 28.9 0.0 0.0
00:06 10.5 9.9 96 1020.8 23.5 S 25.1 0.0 0.1
00:07 10.5 9.9 96 1020.8 24.4 WSW 25.1 0.8 0.1
00:08 10.5 9.9 96 1020.7 19.0 S 25.1 0.8 0.1
00:09 10.5 9.9 96 1020.8 25.1 S 25.1 0.8 0.1
00:10 10.5 9.9 96 1020.7 21.3 S 25.1 0.8 0.1
00:12 10.5 9.9 96 1020.7 21.3 SE 25.9 0.0 0.1
00:13 10.5 9.9 96 1020.6 20.6 S 25.9 0.0 0.1
00:14 10.5 9.9 96 1020.7 22.1 S 25.9 0.0 0.1
00:15 10.5 10.0 97 1020.7 28.2 WSW 28.2 0.0 0.1
00:16 10.5 10.0 97 1020.5 21.3 S 28.2 0.8 0.1
00:17 10.5 10.0 97 1020.7 21.3 S 28.2 0.8 0.1
00:18 10.5 10.0 97 1020.6 22.1 SE 29.8 0.8 0.1
00:19 10.5 10.0 97 1020.5 23.5 S 29.8 0.8 0.1
00:20 10.5 10.0 97 1020.5 22.8 S 29.8 0.8 0.1
00:21 10.5 10.0 97 1020.6 23.5 S 29.8 0.0 0.1
00:22 10.5 10.0 97 1020.7 28.9 S 29.8 0.0 0.1
00:23 10.5 10.0 97 1020.4 25.1 S 29.8 0.0 0.1
00:24 10.5 10.0 97 1020.8 25.1 WSW 29.8 0.0 0.1
00:25 10.5 10.0 97 1020.8 24.4 S 29.8 0.0 0.1
00:27 10.6 10.1 97 1020.7 23.5 S 29.8 0.0 0.1
00:28 10.5 10.0 97 1020.8 23.5 S 28.9 0.0 0.1
00:29 10.5 10.0 97 1020.8 23.5 S 28.9 0.0 0.1
00:30 10.6 10.1 97 1020.7 23.5 SE 28.9 0.0 0.1
00:31 10.6 10.1 97 1020.5 23.5 SE 28.9 0.0 0.1
00:32 10.6 10.1 97 1020.6 23.5 S 28.9 0.0 0.1
00:33 10.6 10.3 98 1020.6 30.4 S 30.4 0.0 0.1
00:34 10.6 10.3 98 1020.5 23.5 S 30.4 0.0 0.1
00:35 10.6 10.3 98 1020.5 22.1 S 30.4 0.0 0.1
00:36 10.6 10.3 98 1020.4 28.9 S 30.4 0.0 0.1
00:37 10.6 10.3 98 1020.3 21.3 S 30.4 0.0 0.1
00:38 10.6 10.3 98 1020.4 25.1 SSW 30.4 0.0 0.1
00:40 10.6 10.3 98 1020.5 25.9 WSW 30.4 0.0 0.1
00:41 10.6 10.3 98 1020.4 22.8 WSW 30.4 0.0 0.1
00:42 10.6 10.3 98 1020.4 20.6 E 30.4 0.0 0.1
00:43 10.6 10.3 98 1020.6 20.6 S 28.9 0.0 0.1
00:44 10.6 10.3 98 1020.3 27.3 S 28.9 0.0 0.1
00:45 10.6 10.3 98 1020.4 27.3 S 28.9 0.0 0.1
00:46 10.6 10.3 98 1020.4 25.9 WSW 28.2 0.0 0.1
00:47 10.6 10.3 98 1020.4 24.4 S 28.2 0.0 0.1
00:48 10.6 10.3 98 1020.3 28.9 S 28.9 0.0 0.1
00:49 10.6 10.3 98 1020.3 26.6 SSW 28.9 0.0 0.1
00:50 10.6 10.5 99 1020.4 25.9 S 28.9 0.0 0.1
00:51 10.6 10.3 98 1020.4 23.5 S 28.9 0.0 0.1
00:52 10.6 10.5 99 1020.4 23.5 S 28.9 0.0 0.1
00:54 10.6 10.5 99 1020.2 27.3 WSW 28.9 0.0 0.1
00:55 10.6 10.5 99 1020.2 28.2 S 28.9 0.0 0.1
00:56 10.7 10.6 99 1020.2 24.4 WSW 30.4 0.0 0.1
00:57 10.7 10.6 99 1020.2 24.4 WSW 30.4 0.0 0.1
00:58 10.7 10.6 99 1020.3 28.2 SE 30.4 0.0 0.1
00:59 10.7 10.6 99 1020.1 20.6 SE 30.4 0.0 0.1
01:00 11.3 11.2 99 1020.2 24.4 WSW 30.4 0.0 0.1
01:01 11.3 11.2 99 1020.3 24.4 WSW 30.4 0.0 0.1
01:02 10.7 10.6 99 1020.3 25.9 N 30.4 0.0 0.1
01:03 10.7 10.6 99 1020.2 26.6 S 30.4 0.0 0.1
01:04 10.7 10.6 99 1020.1 27.3 WSW 30.4 0.0 0.1
01:05 10.7 10.6 99 1020.2 22.1 WSW 30.4 0.0 0.1
01:06 10.7 10.6 99 1020.1 29.8 SE 29.8 0.0 0.1
01:08 10.7 10.6 99 1020.0 25.9 S 29.8 0.0 0.1
01:09 10.7 10.6 99 1020.0 33.6 S 33.6 0.0 0.1
01:10 10.7 10.6 99 1019.9 20.6 S 33.6 0.0 0.1
01:11 10.7 10.6 99 1019.9 29.8 S 33.6 0.0 0.1
01:12 10.7 10.6 99 1020.0 26.6 WSW 33.6 0.0 0.1
01:13 10.7 10.6 99 1019.9 24.4 S 33.6 0.0 0.1
01:14 10.7 10.6 99 1019.8 26.6 WSW 33.6 0.0 0.1
01:15 10.7 10.6 99 1019.8 23.5 S 33.6 0.0 0.1
01:16 10.7 10.6 99 1019.9 26.6 WSW 33.6 0.0 0.1
01:17 10.7 10.6 99 1019.9 19.7 SE 33.6 0.0 0.1
01:18 10.7 10.6 99 1019.9 25.9 WSW 33.6 0.0 0.1
01:19 10.7 10.6 99 1019.9 28.2 WSW 33.6 0.0 0.1
01:20 10.7 10.6 99 1019.8 25.9 S 29.8 0.0 0.1
01:21 10.7 10.6 99 1019.8 27.3 S 28.2 0.0 0.1
01:23 10.7 10.6 99 1019.5 22.1 WSW 28.2 0.8 0.2
01:24 10.7 10.6 99 1019.3 25.1 S 30.4 0.8 0.2
01:25 10.7 10.6 99 1019.3 25.1 S 30.4 0.8 0.2
01:26 10.7 10.6 99 1019.7 27.3 S 30.4 0.8 0.2
01:27 10.7 10.6 99 1019.8 27.3 S 30.4 0.8 0.2
01:28 10.7 10.6 99 1019.6 31.1 S 31.1 0.0 0.2
01:29 10.7 10.6 99 1019.5 28.9 S 31.1 0.0 0.2
01:30 10.7 10.6 99 1019.6 22.8 WSW 31.1 0.0 0.2
01:31 10.7 10.6 99 1019.4 21.3 S 31.1 0.0 0.2
01:32 10.7 10.6 99 1019.5 29.8 S 31.1 0.0 0.2
01:33 10.7 10.6 99 1019.6 28.9 S 31.1 0.0 0.2
01:34 10.7 10.6 99 1019.5 28.2 WSW 31.1 0.0 0.2
01:37 10.7 10.6 99 1019.7 25.1 S 31.1 0.0 0.2
01:38 10.7 10.6 99 1019.9 27.3 S 29.8 0.0 0.2
01:39 10.7 10.6 99 1019.8 28.2 S 29.8 0.0 0.2
01:40 10.7 10.6 99 1019.7 27.3 S 29.8 0.0 0.2
01:41 10.7 10.6 99 1019.9 28.9 WSW 29.8 0.0 0.2
01:42 10.7 10.6 99 1019.7 22.8 S 29.8 0.0 0.2
01:43 10.7 10.6 99 1019.8 20.6 S 28.9 0.0 0.2
01:44 10.7 10.6 99 1019.7 30.4 SE 30.4 0.0 0.2
01:45 10.7 10.6 99 1019.7 27.3 S 30.4 0.0 0.2
01:46 10.7 10.6 99 1019.6 22.8 SSW 30.4 0.0 0.2
01:47 10.7 10.6 99 1019.8 26.6 S 30.4 0.0 0.2
01:48 10.7 10.6 99 1019.6 30.4 S 34.2 0.0 0.2
01:50 10.7 10.6 99 1019.6 26.6 S 34.2 0.0 0.2
01:51 10.7 10.6 99 1019.5 18.3 S 34.2 0.0 0.2
01:52 10.7 10.6 99 1019.7 28.9 WSW 34.2 0.0 0.2
01:53 10.7 10.6 99 1019.9 25.9 S 34.2 0.0 0.2
01:54 10.7 10.6 99 1019.9 25.9 S 34.2 0.0 0.2
01:55 10.7 10.6 99 1019.7 31.1 S 34.2 0.0 0.2
01:56 10.7 10.6 99 1019.7 35.8 WSW 35.8 0.0 0.2
01:57 10.7 10.6 99 1019.7 20.6 S 35.8 0.0 0.2
01:58 10.7 10.6 99 1019.6 27.3 S 35.8 0.0 0.2
01:59 10.7 10.6 99 1019.9 31.1 WSW 35.8 0.0 0.2
02:00 10.7 10.6 99 1019.5 28.9 S 35.8 0.0 0.2
02:01 10.7 10.6 99 1019.4 25.9 S 35.8 0.0 0.2
02:02 10.7 10.6 99 1019.5 29.8 S 35.8 0.0 0.2
02:03 10.7 10.6 99 1019.5 21.3 S 35.8 0.0 0.2
02:05 10.7 10.6 99 1019.6 30.4 S 35.8 0.0 0.2
02:06 10.7 10.6 99 1019.7 24.4 S 31.1 0.0 0.2
02:07 10.7 10.6 99 1019.7 19.0 S 31.1 0.0 0.2
02:08 10.7 10.6 99 1019.7 26.6 SE 31.1 0.0 0.2
02:09 10.6 10.5 99 1019.6 26.6 S 31.1 0.0 0.2
02:10 10.6 10.5 99 1019.5 29.8 S 30.4 0.0 0.2
02:11 10.6 10.5 99 1019.7 24.4 WSW 30.4 0.0 0.2
02:12 10.7 10.6 99 1019.4 21.3 S 30.4 0.0 0.2
02:13 10.6 10.5 99 1019.6 22.1 S 30.4 0.0 0.2
02:14 10.6 10.5 99 1019.6 27.3 S 30.4 0.0 0.2
02:15 10.6 10.5 99 1019.7 29.8 S 30.4 0.0 0.2
02:16 10.6 10.5 99 1019.5 23.5 WSW 29.8 0.0 0.2
02:17 10.6 10.5 99 1019.5 24.4 SW 29.8 0.0 0.2
02:19 10.7 10.6 99 1019.6 29.8 SE 31.1 0.8 0.3
02:20 10.6 10.5 99 1019.4 28.9 S 31.1 0.8 0.3
02:21 10.6 10.5 99 1019.3 25.9 WSW 31.1 0.8 0.3
02:22 10.6 10.5 99 1019.4 25.9 WSW 31.1 0.8 0.3
02:23 10.6 10.5 99 1019.3 25.1 S 31.1 0.8 0.3
02:24 10.6 10.5 99 1019.3 26.6 WSW 31.1 0.0 0.3
02:25 10.6 10.5 99 1019.4 22.8 S 31.1 0.0 0.3
02:26 10.6 10.5 99 1019.5 26.6 S 31.1 0.0 0.3
02:27 10.6 10.5 99 1019.4 25.9 S 31.1 0.0 0.3
02:28 10.6 10.5 99 1019.4 21.3 S 31.1 0.0 0.3
02:29 10.6 10.5 99 1019.3 24.4 S 28.9 0.0 0.3
02:30 10.6 10.5 99 1019.4 28.2 S 28.9 0.0 0.3
02:31 10.6 10.5 99 1019.4 28.2 S 28.2 0.0 0.3
02:33 10.6 10.5 99 1019.1 25.9 S 28.2 0.0 0.3
02:34 10.6 10.5 99 1019.3 22.1 NE 28.2 0.0 0.3
02:35 10.6 10.5 99 1019.3 32.0 WSW 32.0 0.0 0.3
02:36 10.6 10.5 99 1019.2 24.4 SE 32.0 0.0 0.3
02:37 10.6 10.5 99 1019.4 25.1 SE 32.0 0.0 0.3
02:38 10.6 10.5 99 1019.3 27.3 S 32.0 0.0 0.3
02:39 10.6 10.5 99 1019.4 28.9 S 32.0 0.0 0.3
02:40 10.6 10.5 99 1019.3 22.8 S 32.0 0.0 0.3
02:41 10.6 10.5 99 1019.2 28.9 S 32.0 0.0 0.3
02:42 10.6 10.5 99 1019.2 21.3 S 32.0 0.0 0.3
02:43 10.6 10.5 99 1019.1 23.5 S 32.0 0.0 0.3
02:44 10.6 10.5 99 1019.1 25.1 S 32.0 0.0 0.3
02:45 10.6 10.5 99 1019.1 23.5 WSW 31.1 0.0 0.3
02:47 10.6 10.5 99 1019.2 25.9 S 31.1 0.0 0.3
02:48 10.6 10.5 99 1018.9 29.8 WSW 29.8 0.0 0.3
02:49 10.6 10.5 99 1019.2 25.1 S 29.8 0.0 0.3
02:50 10.6 10.5 99 1019.2 25.1 S 29.8 0.0 0.3
02:51 10.6 10.5 99 1019.0 26.6 SSW 29.8 0.0 0.3
02:52 10.6 10.5 99 1019.1 26.6 SSW 29.8 0.0 0.3
02:53 10.6 10.5 99 1019.0 24.4 WSW 29.8 0.0 0.3
02:54 10.6 10.5 99 1019.2 22.1 S 29.8 0.0 0.3
02:55 10.6 10.5 99 1018.9 25.1 S 29.8 0.0 0.3
02:56 10.6 10.5 99 1019.0 29.8 S 29.8 0.0 0.3
02:57 10.6 10.5 99 1019.1 26.6 S 29.8 0.8 0.3
02:58 10.6 10.5 99 1019.1 25.1 WSW 29.8 0.8 0.3
02:59 10.6 10.5 99 1019.0 29.8 S 29.8 0.8 0.3
03:00 10.6 10.5 99 1019.0 28.2 WSW 29.8 0.8 0.3
03:02 10.6 10.5 99 1019.2 25.1 WNW 29.8 0.0 0.3
03:03 10.7 10.6 99 1019.1 28.9 S 29.8 0.0 0.3
03:04 10.7 10.6 99 1019.2 23.5 S 29.8 0.0 0.3
03:05 10.7 10.6 99 1019.2 23.5 S 29.8 0.0 0.3
03:06 10.7 10.6 99 1019.2 25.1 S 29.8 0.0 0.3
03:07 10.7 10.6 99 1019.3 21.3 S 29.8 0.0 0.3
03:08 10.7 10.6 99 1019.0 26.6 WSW 29.8 0.0 0.3
03:09 10.7 10.6 99 1019.0 27.3 WSW 29.8 0.0 0.3
03:10 10.7 10.6 99 1018.9 28.9 S 29.8 0.0 0.3
03:11 10.7 10.6 99 1019.0 28.9 S 29.8 0.0 0.3
03:12 10.7 10.6 99 1018.9 25.9 S 29.8 0.0 0.3
03:13 10.7 10.6 99 1019.0 31.1 S 31.1 0.0 0.3
03:14 10.7 10.6 99 1019.0 28.2 S 31.1 0.0 0.3
03:15 10.7 10.6 99 1019.1 23.5 WSW 31.1 0.0 0.3
03:17 10.7 10.6 99 1019.2 29.8 S 31.1 0.8 0.4
03:18 10.7 10.6 99 1019.0 30.4 S 31.1 0.8 0.4
03:19 10.7 10.6 99 1019.0 19.0 SE 31.1 0.8 0.4
03:20 10.7 10.6 99 1019.0 19.7 S 31.1 0.8 0.4
03:21 10.7 10.6 99 1018.9 24.4 S 31.1 0.8 0.4
03:22 10.7 10.6 99 1018.9 21.3 S 31.1 0.0 0.4
03:23 10.7 10.6 99 1018.9 26.6 S 31.1 0.0 0.4
03:24 10.7 10.6 99 1018.8 28.2 WSW 30.4 0.0 0.4
03:25 10.7 10.6 99 1018.9 26.6 S 30.4 0.0 0.4
03:26 10.7 10.6 99 1018.5 25.9 S 30.4 0.0 0.4
03:27 10.7 10.6 99 1018.5 20.6 S 30.4 0.0 0.4
03:28 10.7 10.6 99 1018.9 25.1 S 30.4 0.0 0.4
03:29 10.7 10.6 99 1018.6 24.4 S 29.8 0.0 0.4
03:30 10.7 10.6 99 1018.7 31.1 S 31.1 0.0 0.4
03:32 10.7 10.6 99 1018.6 31.1 WSW 33.6 0.8 0.4
03:33 10.7 10.6 99 1018.6 31.1 S 33.6 0.8 0.4
03:34 10.7 10.6 99 1018.6 28.2 S 33.6 0.8 0.4
03:35 10.7 10.6 99 1018.6 27.3 S 33.6 0.8 0.4
03:36 10.7 10.6 99 1018.6 20.6 S 33.6 0.8 0.4
03:37 10.7 10.6 99 1018.4 24.4 WSW 33.6 0.0 0.4
03:38 10.7 10.6 99 1018.5 31.1 S 33.6 0.0 0.4
03:39 10.6 10.5 99 1018.4 22.1 S 33.6 0.0 0.4
03:40 10.7 10.6 99 1018.5 22.1 S 33.6 0.0 0.4
03:41 10.6 10.5 99 1018.4 22.8 WSW 33.6 0.0 0.4
03:42 10.6 10.5 99 1018.4 22.1 WNW 31.1 0.0 0.4
03:43 10.6 10.5 99 1018.4 19.7 S 31.1 0.0 0.4
03:44 10.6 10.5 99 1018.4 25.9 S 31.1 0.0 0.4
03:46 10.6 10.5 99 1018.6 28.9 S 31.1 0.0 0.4
03:47 10.6 10.5 99 1018.3 32.0 S 32.0 0.0 0.4
03:48 10.6 10.5 99 1018.4 27.3 S 32.0 0.0 0.4
03:49 10.6 10.5 99 1018.4 27.3 S 32.0 0.0 0.4
03:50 10.6 10.5 99 1018.2 28.9 WSW 32.0 0.0 0.5
03:51 10.6 10.5 99 1018.4 24.4 SE 32.0 0.8 0.5
03:52 10.6 10.5 99 1018.4 25.1 SE 32.0 0.8 0.5
03:53 10.6 10.5 99 1018.5 22.8 S 32.0 0.8 0.5
03:54 10.6 10.5 99 1018.3 28.9 S 32.0 0.8 0.5
03:55 10.6 10.5 99 1018.5 25.9 S 32.0 0.8 0.5
03:56 10.6 10.5 99 1018.4 31.1 SE 32.0 0.0 0.5
03:57 10.6 10.5 99 1018.4 22.8 S 32.0 0.0 0.5
03:58 10.6 10.5 99 1018.5 26.6 S 31.1 0.0 0.5
03:59 10.6 10.5 99 1018.4 25.9 S 31.1 0.0 0.5
04:00 10.6 10.5 99 1018.4 28.9 WSW 31.1 0.0 0.5
04:02 10.6 10.5 99 1018.4 26.6 S 31.1 0.0 0.5
04:03 10.6 10.5 99 1018.3 28.9 WSW 31.1 0.0 0.5
04:04 10.6 10.5 99 1018.3 22.8 SE 31.1 0.0 0.5
04:05 10.6 10.5 99 1018.3 22.8 SE 31.1 0.0 0.5
04:06 10.7 10.6 99 1018.3 37.4 S 37.4 0.0 0.5
04:07 10.6 10.5 99 1018.5 32.0 S 37.4 0.0 0.5
04:08 10.6 10.5 99 1018.2 25.9 S 37.4 0.0 0.5
04:09 10.6 10.5 99 1018.4 23.5 S 37.4 0.0 0.5
04:10 10.6 10.5 99 1018.3 25.9 S 37.4 0.0 0.5
04:11 10.6 10.5 99 1018.3 24.4 NNW 37.4 0.0 0.5
04:12 10.6 10.5 99 1018.4 28.9 SE 37.4 0.0 0.5
04:13 10.6 10.5 99 1018.4 28.2 S 37.4 0.0 0.5
04:14 10.6 10.5 99 1018.4 29.8 SE 37.4 0.0 0.5
04:15 10.6 10.5 99 1018.3 21.3 WSW 37.4 0.0 0.5
04:16 10.6 10.5 99 1018.3 27.3 WSW 37.4 0.0 0.5
04:18 10.6 10.5 99 1018.3 28.9 S 29.8 0.0 0.5
04:19 10.6 10.5 99 1018.4 22.1 WSW 29.8 0.0 0.5
04:20 10.6 10.5 99 1018.4 28.9 S 29.8 0.0 0.5
04:21 10.6 10.5 99 1018.4 20.6 S 29.8 0.0 0.5
04:22 10.6 10.5 99 1018.3 24.4 S 29.8 0.0 0.5
04:23 10.6 10.5 99 1018.5 29.8 WSW 29.8 0.0 0.5
04:24 10.7 10.6 99 1018.2 30.4 WSW 30.4 0.0 0.5
04:25 10.6 10.5 99 1018.4 32.0 S 32.0 0.8 0.6
04:26 10.6 10.5 99 1018.3 23.5 S 32.0 0.8 0.6
04:27 10.6 10.5 99 1018.5 23.5 WSW 32.0 0.8 0.6
04:28 10.6 10.5 99 1018.4 29.8 S 32.0 0.8 0.6
04:29 10.6 10.5 99 1018.4 27.3 S 32.0 0.8 0.6
04:30 10.6 10.5 99 1018.3 21.3 S 32.0 0.0 0.6
04:31 10.6 10.5 99 1018.4 25.9 S 32.0 0.0 0.6
04:33 10.6 10.5 99 1018.2 25.1 SE 32.0 0.0 0.6
04:34 10.6 10.5 99 1018.2 25.1 S 32.0 0.0 0.6
04:35 10.6 10.5 99 1018.5 22.8 S 29.8 0.0 0.6
04:36 10.6 10.5 99 1018.4 29.8 E 29.8 0.0 0.6
04:37 10.6 10.5 99 1018.3 26.6 S 29.8 0.0 0.6
04:38 10.6 10.5 99 1018.3 28.2 S 29.8 0.0 0.6
04:39 10.6 10.5 99 1018.3 22.1 WSW 29.8 0.0 0.6
04:40 10.6 10.5 99 1018.2 24.4 S 29.8 0.0 0.6
04:41 10.6 10.5 99 1018.3 22.8 S 29.8 0.0 0.6
04:42 10.6 10.5 99 1018.1 24.4 WSW 29.8 0.0 0.6
04:43 10.6 10.5 99 1018.4 22.8 S 29.8 0.0 0.6
04:44 10.6 10.5 99 1018.3 26.6 SSE 29.8 0.0 0.6
04:45 10.6 10.5 99 1018.4 22.8 S 32.7 0.0 0.6
04:46 10.6 10.5 99 1018.5 30.4 WSW 32.7 0.0 0.6
04:48 10.6 10.5 99 1018.5 25.1 E 32.7 0.0 0.6
04:49 10.6 10.5 99 1018.3 19.0 S 32.7 0.0 0.6
04:50 10.6 10.5 99 1018.4 26.6 WSW 32.7 0.0 0.6
04:51 10.6 10.5 99 1018.6 28.9 S 32.7 0.0 0.6
04:52 10.6 10.5 99 1018.5 28.2 WSW 32.7 0.8 0.6
04:53 10.6 10.5 99 1018.2 29.8 WSW 32.7 0.8 0.6
04:54 10.6 10.5 99 1018.5 22.1 WSW 32.7 0.8 0.6
04:55 10.6 10.5 99 1018.5 29.8 S 32.7 0.8 0.6
04:56 10.6 10.5 99 1018.6 29.8 S 30.4 0.8 0.6
04:57 10.6 10.5 99 1018.5 27.3 S 29.8 0.0 0.6
04:58 10.6 10.5 99 1018.4 22.8 S 32.0 0.0 0.6
04:59 10.6 10.5 99 1018.4 23.5 S 32.0 0.0 0.6
05:00 10.6 10.5 99 1018.4 39.6 S 39.6 0.0 0.6
05:01 10.6 10.5 99 1018.5 29.8 S 39.6 0.0 0.6
05:03 10.6 10.5 99 1018.5 29.8 S 39.6 0.0 0.6
05:04 10.6 10.5 99 1018.5 30.4 S 39.6 0.0 0.6
05:05 10.6 10.5 99 1018.3 26.6 S 39.6 0.0 0.6
05:06 10.6 10.5 99 1018.5 26.6 S 39.6 0.0 0.6
05:07 10.6 10.5 99 1018.5 26.6 S 39.6 0.0 0.6
05:08 10.6 10.5 99 1018.2 28.2 S 39.6 0.0 0.6
05:09 10.6 10.5 99 1018.3 26.6 SE 39.6 0.0 0.6
05:10 10.6 10.5 99 1018.3 26.6 S 39.6 0.0 0.6
05:11 10.6 10.5 99 1018.3 20.6 SE 32.0 0.0 0.6
05:12 10.7 10.6 99 1018.2 21.3 S 32.0 0.0 0.6
05:13 10.6 10.5 99 1018.2 23.5 S 32.0 0.0 0.6
05:14 10.6 10.5 99 1018.2 31.1 S 31.1 0.0 0.7
05:15 10.6 10.5 99 1018.0 28.2 S 31.1 0.8 0.7
05:17 10.7 10.6 99 1018.1 25.1 S 31.1 0.8 0.7
05:18 10.6 10.5 99 1018.0 27.3 S 31.1 0.8 0.8
05:19 10.6 10.5 99 1018.2 31.1 WSW 31.1 1.5 0.8
05:20 10.6 10.5 99 1018.4 22.8 S 31.1 0.8 0.8
05:21 10.6 10.5 99 1018.4 27.3 WSW 31.1 0.8 0.8
05:22 10.6 10.5 99 1018.4 31.1 S 31.1 0.8 0.8
05:23 10.6 10.5 99 1018.3 25.9 SE 31.1 0.8 0.8
05:24 10.6 10.5 99 1018.5 26.6 WSW 31.1 0.0 0.8
05:25 10.6 10.5 99 1018.5 25.9 S 31.1 0.0 0.8
05:26 10.6 10.5 99 1018.4 23.5 WSW 31.1 0.0 0.8
05:27 10.6 10.5 99 1018.6 22.1 S 31.1 0.0 0.8
05:28 10.6 10.5 99 1018.4 25.1 WSW 31.1 0.0 0.8
05:29 10.7 10.6 99 1018.7 31.1 S 31.1 0.0 0.8
05:31 10.7 10.6 99 1018.6 22.8 S 31.1 0.0 0.8
05:32 10.7 10.6 99 1018.6 19.7 WSW 31.1 0.0 0.8
05:33 10.7 10.6 99 1018.5 26.6 WSW 31.1 0.0 0.8
05:34 10.7 10.6 99 1018.6 19.7 SE 31.1 0.0 0.8
05:35 10.7 10.6 99 1018.7 20.6 S 31.1 0.0 0.8
05:36 10.7 10.6 99 1018.7 22.1 S 31.1 0.0 0.8
05:37 10.7 10.6 99 1018.8 19.0 S 31.1 0.0 0.8
05:38 10.7 10.6 99 1018.5 23.5 SSW 31.1 0.0 0.8
05:39 10.7 10.6 99 1018.5 23.5 WSW 31.1 0.0 0.8
05:40 10.7 10.6 99 1018.6 22.8 S 31.1 0.0 0.8
05:41 10.7 10.6 99 1018.6 18.3 S 31.1 0.0 0.8
05:42 10.7 10.6 99 1018.4 25.1 WSW 31.1 0.0 0.8
05:43 10.7 10.6 99 1018.4 27.3 WSW 31.1 0.0 0.8
05:45 10.7 10.6 99 1018.6 25.1 S 31.1 0.0 0.8
05:46 10.7 10.6 99 1018.4 25.9 WSW 31.1 0.0 0.8
05:47 10.7 10.6 99 1018.4 28.2 SSW 31.1 0.0 0.8
05:48 10.7 10.6 99 1018.4 26.6 S 31.1 0.8 0.8
05:49 10.7 10.6 99 1018.4 25.1 S 31.1 0.8 0.8
05:50 10.7 10.6 99 1018.4 27.3 WSW 31.1 0.8 0.8
05:51 10.7 10.6 99 1018.3 28.9 S 31.1 0.8 0.8
05:52 10.7 10.6 99 1018.4 23.5 S 31.1 0.8 0.8
05:53 10.7 10.6 99 1018.4 25.9 S 31.1 0.0 0.8
05:54 10.7 10.6 99 1018.4 22.1 S 31.1 0.0 0.8
05:55 10.7 10.6 99 1018.3 25.9 WSW 28.9 0.0 0.8
05:56 10.7 10.6 99 1018.2 22.1 S 28.9 0.0 0.8
05:57 10.7 10.6 99 1018.3 27.3 WSW 28.9 0.0 0.8
05:58 10.7 10.6 99 1018.4 28.2 S 28.9 0.0 0.8
06:00 10.7 10.6 99 1018.3 23.5 WSW 30.4 0.0 0.8
06:01 10.8 10.7 99 1018.6 25.9 S 30.4 0.0 0.8
06:02 10.8 10.7 99 1018.4 23.5 S 30.4 0.0 0.8
06:03 10.7 10.6 99 1018.5 17.4 WSW 30.4 0.0 0.8
06:04 10.7 10.6 99 1018.4 31.1 WSW 31.1 0.0 0.8
06:05 10.7 10.6 99 1018.4 20.6 S 31.1 0.0 0.8
06:06 10.7 10.6 99 1018.4 21.3 S 31.1 0.0 0.8
06:07 10.7 10.6 99 1018.2 25.9 S 31.1 0.0 0.8
06:08 10.8 10.7 99 1018.3 22.8 S 31.1 0.0 0.8
06:09 10.8 10.7 99 1018.4 23.5 S 31.1 0.0 0.8
06:10 10.8 10.7 99 1018.2 28.2 S 31.1 0.0 0.8
06:11 10.7 10.6 99 1018.4 26.6 S 31.1 0.0 0.8
06:12 10.8 10.7 99 1018.3 26.6 S 31.1 0.0 0.8
06:14 10.7 10.6 99 1018.4 31.1 S 31.1 0.0 0.8
06:15 10.7 10.6 99 1018.4 28.2 S 31.1 0.0 0.8
06:16 10.8 10.7 99 1018.4 24.4 SE 31.1 0.0 0.8
06:17 10.8 10.7 99 1018.4 24.4 SE 31.1 0.0 0.8
06:18 10.8 10.7 99 1018.4 25.9 WSW 31.1 0.8 0.9
06:19 10.8 10.7 99 1018.3 29.8 S 31.1 0.8 0.9
06:20 10.8 10.7 99 1018.1 27.3 S 31.1 0.8 0.9
06:21 10.8 10.7 99 1018.3 22.8 WSW 31.1 0.8 0.9
06:22 10.8 10.7 99 1018.4 20.6 S 31.1 0.8 0.9
06:23 10.8 10.7 99 1018.4 22.1 S 31.1 0.0 0.9
06:24 10.8 10.7 99 1018.4 17.4 SSW 31.1 0.0 0.9
06:25 10.8 10.7 99 1018.3 25.9 S 29.8 0.0 0.9
06:26 10.8 10.7 99 1018.3 22.8 S 29.8 0.0 0.9
06:28 10.8 10.7 99 1018.3 30.4 WSW 30.4 0.0 0.9
06:29 10.8 10.7 99 1018.5 28.2 S 30.4 0.0 0.9
06:30 10.8 10.7 99 1018.5 22.1 SE 30.4 0.0 0.9
06:31 10.8 10.7 99 1018.6 25.1 S 30.4 0.0 0.9
06:32 10.8 10.7 99 1018.7 24.4 S 30.4 0.0 0.9
06:33 10.8 10.7 99 1018.5 25.1 WSW 30.4 0.0 0.9
06:34 10.8 10.7 99 1018.6 28.2 S 33.6 0.0 0.9
06:35 10.8 10.7 99 1018.4 22.8 S 33.6 0.0 0.9
06:36 10.8 10.7 99 1018.4 23.5 S 33.6 0.0 0.9
06:37 10.8 10.7 99 1018.5 25.9 WSW 33.6 0.0 0.9
06:38 10.8 10.7 99 1018.5 18.3 WSW 33.6 0.0 0.9
06:39 10.8 10.7 99 1018.5 16.8 WSW 33.6 0.0 0.9
06:40 10.8 10.7 99 1018.5 25.9 S 33.6 0.0 0.9
06:41 10.8 10.7 99 1018.6 19.7 S 33.6 0.0 0.9
06:42 10.8 10.7 99 1018.5 24.4 S 33.6 0.0 0.9
06:44 10.8 10.7 99 1018.4 20.6 S 28.2 0.0 0.9
06:45 10.8 10.7 99 1018.5 29.8 S 29.8 0.0 0.9
06:46 10.9 10.8 99 1018.5 22.8 S 29.8 0.0 0.9
06:47 10.9 10.8 99 1018.7 22.1 S 29.8 0.0 0.9
06:48 10.9 10.8 99 1018.5 19.7 S 29.8 0.0 0.9
06:49 10.9 10.8 99 1018.4 22.1 WSW 29.8 0.0 0.9
06:50 10.9 10.8 99 1018.5 25.1 WSW 29.8 0.0 0.9
06:51 10.9 10.8 99 1018.6 23.5 SE 29.8 0.0 0.9
06:52 10.9 10.8 99 1018.7 19.0 WSW 29.8 0.0 0.9
06:53 10.9 10.8 99 1018.8 22.8 WSW 29.8 0.0 0.9
06:54 10.9 10.8 99 1018.5 16.8 S 29.8 0.0 0.9
06:55 10.9 10.8 99 1018.7 20.6 S 29.8 0.0 0.9
06:56 10.9 10.8 99 1018.8 15.2 WSW 25.1 0.0 0.9
06:58 10.9 10.8 99 1018.6 20.6 S 25.1 0.0 0.9
06:59 10.9 10.8 99 1018.6 25.9 WSW 25.9 0.0 0.9
07:00 10.9 10.8 99 1018.8 21.3 WSW 25.9 0.0 0.9
07:01 10.9 10.8 99 1018.8 21.3 WSW 25.9 0.0 0.9
07:02 10.9 10.8 99 1018.5 21.3 WSW 25.9 0.0 0.9
07:03 10.9 10.8 99 1018.6 21.3 WSW 25.9 0.0 0.9
07:04 10.9 10.8 99 1018.8 21.3 WSW 25.9 0.0 0.9
07:05 11.0 10.9 99 1018.7 19.0 WSW 25.9 0.8 0.9
07:06 11.0 10.9 99 1018.7 20.6 WSW 25.9 0.8 0.9
07:07 11.0 10.9 99 1018.9 19.7 WSW 25.9 0.8 0.9
07:08 11.0 10.9 99 1018.9 23.5 S 25.9 0.8 0.9
07:09 11.0 10.9 99 1018.8 18.3 WSW 23.5 0.8 0.9
07:10 11.0 10.9 99 1018.8 16.8 S 23.5 0.0 0.9
07:11 11.0 10.9 99 1018.7 23.5 WSW 23.5 0.0 0.9
07:13 11.0 10.9 99 1018.7 25.9 WSW 25.9 0.0 0.9
07:14 11.1 11.0 99 1018.7 28.2 S 28.2 0.0 0.9
07:15 11.0 10.9 99 1018.7 24.4 S 28.2 0.0 0.9
07:16 11.0 10.9 99 1018.9 23.5 WSW 28.2 0.0 0.9
07:17 11.1 11.0 99 1018.8 28.2 S 28.2 0.0 0.9
07:18 11.1 11.0 99 1018.7 24.4 WSW 28.2 0.0 0.9
07:19 11.1 11.0 99 1018.7 19.7 WSW 28.2 0.0 0.9
07:20 11.1 11.0 99 1018.9 19.7 WSW 28.2 0.0 0.9
07:21 11.1 11.0 99 1018.8 24.4 S 28.2 0.0 0.9
07:22 11.1 11.0 99 1018.9 30.4 SE 30.4 0.0 1.0
07:23 11.1 11.0 99 1018.8 18.3 WSW 30.4 0.8 1.0
07:24 11.1 11.0 99 1018.9 20.6 WSW 30.4 0.8 1.0
07:25 11.1 11.0 99 1018.9 22.8 WSW 30.4 0.8 1.0
07:27 11.1 11.0 99 1018.8 18.3 WSW 30.4 0.8 1.0
07:28 11.1 11.0 99 1018.9 23.5 WSW 30.4 0.0 1.0
07:29 11.1 11.0 99 1018.9 23.5 WSW 30.4 0.0 1.0
07:30 11.1 11.0 99 1018.9 22.1 S 30.4 0.0 1.0
07:31 11.1 11.0 99 1018.9 19.7 WSW 30.4 0.0 1.0
07:32 11.1 11.0 99 1019.0 24.4 WSW 30.4 0.0 1.0
07:33 11.1 11.0 99 1019.0 21.3 WSW 25.9 0.0 1.0
07:34 11.1 11.0 99 1019.3 22.8 WSW 25.9 0.0 1.0
07:35 11.1 11.0 99 1019.0 19.7 S 25.9 0.0 1.0
07:36 11.1 11.0 99 1018.9 22.8 WSW 25.9 0.0 1.0
07:37 11.1 11.0 99 1019.1 19.7 S 25.1 0.0 1.0
07:38 11.1 11.0 99 1019.1 21.3 S 25.1 0.0 1.0
07:39 11.1 11.0 99 1019.2 20.6 S 25.1 0.0 1.0
07:41 11.1 11.0 99 1019.3 28.9 S 28.9 0.8 1.1
07:42 11.1 11.0 99 1019.3 23.5 WSW 28.9 0.8 1.1
07:43 11.1 11.0 99 1019.0 24.4 S 28.9 0.8 1.1
07:44 11.1 11.0 99 1019.2 23.5 WSW 28.9 0.8 1.1
07:45 11.1 11.0 99 1019.2 22.1 SSW 28.9 0.8 1.1
07:46 11.1 11.0 99 1019.3 25.1 S 28.9 0.0 1.1
07:47 11.1 11.0 99 1019.0 25.1 S 28.9 0.0 1.1
07:48 11.1 11.0 99 1019.2 25.1 S 28.9 0.0 1.1
07:49 11.2 11.1 99 1019.2 17.4 SSW 28.9 0.0 1.1
07:50 11.2 11.1 99 1019.2 28.9 WSW 28.9 0.0 1.1
07:51 11.2 11.1 99 1018.9 21.3 SE 28.9 0.0 1.1
07:52 11.2 11.1 99 1018.9 22.1 S 28.9 0.0 1.1
07:53 11.2 11.1 99 1019.1 25.9 S 28.9 0.0 1.1
07:55 11.2 11.1 99 1019.2 21.3 WSW 28.9 0.0 1.1
07:56 11.2 11.1 99 1019.1 21.3 WSW 28.9 0.0 1.1
07:57 11.2 11.1 99 1019.0 24.4 S 28.9 0.0 1.1
07:58 11.2 11.1 99 1019.0 26.6 WNW 28.9 0.0 1.1
07:59 11.2 11.1 99 1019.0 23.5 SE 28.9 0.0 1.1
08:00 11.3 11.2 99 1019.1 26.6 WSW 28.9 0.0 1.1
08:01 11.3 11.2 99 1018.9 26.6 WSW 26.6 0.0 1.1
08:02 11.3 11.2 99 1018.9 25.9 S 26.6 0.0 1.1
08:03 11.3 11.2 99 1018.9 25.9 WNW 26.6 0.0 1.1
08:04 11.3 11.2 99 1019.3 25.9 WNW 26.6 0.0 1.1
08:05 11.3 11.2 99 1019.1 26.6 S 26.6 0.0 1.1
08:06 11.3 11.2 99 1019.2 21.3 WSW 26.6 0.8 1.1
08:07 11.3 11.2 99 1019.2 25.1 S 26.6 0.8 1.1
08:09 11.3 11.2 99 1019.2 25.1 S 26.6 0.8 1.1
08:10 11.3 11.2 99 1019.3 25.1 S 26.6 0.8 1.1
08:11 11.3 11.2 99 1019.3 25.1 S 26.6 0.0 1.1
08:12 11.3 11.2 99 1019.1 25.1 S 26.6 0.0 1.1
08:13 11.3 11.2 99 1019.1 25.1 S 26.6 0.0 1.1
08:14 11.3 11.2 99 1019.1 28.9 WSW 28.9 0.0 1.1
08:15 11.3 11.2 99 1019.3 28.9 WSW 28.9 0.0 1.1
08:16 11.3 11.2 99 1019.2 28.9 WSW 28.9 0.0 1.1
08:17 11.3 11.2 99 1019.3 28.9 WSW 28.9 0.0 1.1
08:18 11.3 11.2 99 1019.1 28.9 WSW 28.9 0.0 1.1
08:19 11.3 11.2 99 1019.2 25.1 S 28.9 0.0 1.1
08:20 11.4 11.3 99 1019.0 15.9 S 28.9 0.0 1.1
08:21 11.4 11.3 99 1019.2 17.4 S 28.9 0.0 1.1
08:23 11.3 11.2 99 1019.1 24.4 S 28.9 0.0 1.1
08:24 11.3 11.2 99 1019.1 19.7 WSW 28.9 0.0 1.1
08:25 11.3 11.2 99 1019.0 19.7 WSW 28.9 0.0 1.1
08:26 11.3 11.2 99 1018.9 19.7 WSW 28.9 0.0 1.1
08:27 11.3 11.2 99 1019.2 19.7 WSW 28.9 0.0 1.1
08:28 11.3 11.2 99 1019.1 19.7 WSW 28.9 0.0 1.1
08:29 11.3 11.2 99 1019.1 19.7 WSW 25.1 0.0 1.1
08:30 11.4 11.3 99 1019.2 21.3 WSW 26.6 0.0 1.1
08:31 11.4 11.3 99 1019.4 22.8 S 26.6 0.0 1.1
08:32 11.4 11.3 99 1019.2 22.8 S 26.6 0.0 1.1
08:33 11.4 11.3 99 1019.2 22.8 S 26.6 0.0 1.1
08:34 11.4 11.3 99 1019.2 22.8 S 26.6 0.0 1.1
08:35 11.4 11.3 99 1019.3 28.2 WSW 28.2 0.0 1.1
08:37 11.4 11.3 99 1019.2 22.8 WSW 28.2 0.0 1.1
08:38 11.4 11.3 99 1019.4 22.8 WSW 28.2 0.0 1.1
08:39 11.4 11.3 99 1019.3 21.3 S 28.2 0.0 1.1
08:40 11.4 11.3 99 1019.3 22.8 S 28.2 0.0 1.1
08:41 11.4 11.3 99 1019.2 22.8 S 28.2 0.0 1.1
08:42 11.4 11.3 99 1019.5 27.3 S 28.2 0.0 1.1
08:43 11.4 11.3 99 1019.4 27.3 S 28.2 0.0 1.1
08:44 11.4 11.3 99 1019.5 25.1 S 28.2 0.0 1.1
08:45 11.5 11.4 99 1019.4 28.2 S 28.2 0.0 1.1
08:46 11.5 11.4 99 1019.6 25.9 S 28.2 0.0 1.1
08:47 11.5 11.4 99 1019.4 25.1 S 28.2 0.0 1.1
08:48 11.5 11.4 99 1019.6 29.8 WSW 30.4 0.0 1.1
08:49 11.5 11.4 99 1019.7 29.8 WSW 30.4 0.0 1.1
08:51 11.5 11.4 99 1019.6 30.4 S 30.4 0.0 1.1
08:52 11.5 11.4 99 1019.7 23.5 SSW 30.4 0.0 1.1
08:53 11.5 11.4 99 1019.5 25.1 S 30.4 0.0 1.1
08:54 11.5 11.4 99 1019.5 19.0 S 30.4 0.0 1.1
08:55 11.5 11.4 99 1019.6 18.3 WSW 30.4 0.0 1.1
08:56 11.5 11.4 99 1019.5 24.4 S 30.4 0.0 1.1
08:57 11.5 11.4 99 1019.6 24.4 S 30.4 0.0 1.1
08:58 11.5 11.4 99 1019.5 22.1 S 30.4 0.8 1.2
08:59 11.5 11.4 99 1019.7 20.6 WSW 30.4 0.8 1.2
09:00 11.5 11.4 99 1019.7 19.7 S 30.4 0.8 1.2
09:01 11.5 11.4 99 1019.7 19.7 S 30.4 0.8 1.2
09:02 11.5 11.4 99 1019.6 19.7 S 25.9 0.8 1.2
09:03 11.5 11.4 99 1019.6 19.7 S 25.9 0.0 1.2
09:05 11.5 11.4 99 1019.7 19.7 S 25.9 0.0 1.2
09:06 11.5 11.4 99 1019.7 19.7 S 25.9 0.0 1.2
09:07 11.6 11.5 99 1019.7 28.2 S 28.2 0.0 1.2
09:08 11.6 11.5 99 1019.5 20.6 S 28.2 0.0 1.2
09:09 11.6 11.5 99 1019.6 25.9 WSW 28.2 0.0 1.2
09:10 11.6 11.5 99 1019.6 24.4 WSW 28.2 0.0 1.2
09:11 11.6 11.5 99 1019.7 21.3 WSW 28.2 0.0 1.2
09:12 11.6 11.5 99 1019.9 21.3 WSW 28.2 0.0 1.2
09:13 11.6 11.5 99 1019.5 23.5 S 28.2 0.0 1.2
09:14 11.6 11.5 99 1019.5 25.1 S 28.2 0.0 1.2
09:15 11.6 11.5 99 1019.7 25.1 S 28.2 0.0 1.2
09:16 11.6 11.5 99 1019.5 27.3 S 32.0 0.0 1.2
09:17 11.6 11.5 99 1019.6 20.6 WSW 32.0 0.0 1.2
09:18 11.6 11.5 99 1019.7 19.7 WSW 32.0 0.0 1.2
09:20 11.7 11.6 99 1019.8 19.7 WSW 32.0 0.0 1.2
09:21 11.7 11.6 99 1019.6 19.7 WSW 32.0 0.0 1.2
09:22 11.7 11.6 99 1019.6 19.7 WSW 32.0 0.0 1.2
09:23 11.7 11.6 99 1019.5 19.7 WSW 32.0 0.0 1.2
09:24 11.7 11.6 99 1019.6 19.7 WSW 32.0 0.0 1.2
09:25 11.7 11.6 99 1019.6 19.7 WSW 32.0 0.0 1.2
09:26 11.7 11.6 99 1019.7 26.6 S 32.0 0.0 1.2
09:27 11.7 11.6 99 1019.7 26.6 S 26.6 0.0 1.2
09:28 11.7 11.6 99 1019.9 26.6 S 26.6 0.0 1.2
09:29 11.7 11.6 99 1019.8 20.6 WSW 26.6 0.0 1.2
09:30 11.7 11.6 99 1019.9 26.6 SSW 27.3 0.0 1.2
09:31 11.7 11.6 99 1019.9 19.7 WNW 27.3 0.0 1.2
09:32 11.7 11.6 99 1019.9 19.7 WNW 27.3 0.0 1.2
09:34 11.7 11.6 99 1020.0 19.7 WNW 27.3 0.0 1.2
09:35 11.7 11.6 99 1019.9 19.7 WNW 27.3 0.0 1.2
09:36 11.7 11.6 99 1020.0 26.6 WSW 27.3 0.0 1.2
09:37 11.7 11.6 99 1020.0 26.6 WSW 27.3 0.0 1.2
09:38 11.7 11.6 99 1020.2 27.3 WSW 27.3 0.0 1.2
09:39 11.7 11.6 99 1020.2 27.3 WSW 27.3 0.0 1.2
09:40 11.7 11.6 99 1020.0 28.9 WSW 28.9 0.0 1.2
09:41 11.7 11.6 99 1020.1 23.5 WSW 28.9 0.0 1.2
09:42 11.7 11.6 99 1020.2 18.3 WSW 28.9 0.0 1.2
09:43 11.6 11.5 99 1020.1 29.8 WSW 29.8 0.0 1.2
09:44 11.6 11.5 99 1019.9 18.3 WSW 29.8 0.0 1.2
09:45 11.7 11.6 99 1020.0 23.5 S 29.8 0.0 1.2
09:46 11.7 11.6 99 1020.0 22.1 S 29.8 0.0 1.2
09:48 11.7 11.6 99 1020.3 23.5 WSW 34.2 0.0 1.2
09:49 11.7 11.6 99 1020.2 31.1 S 34.2 0.0 1.2
09:50 11.7 11.6 99 1020.1 20.6 WSW 34.2 0.0 1.2
09:51 11.7 11.6 99 1020.3 21.3 S 34.2 0.0 1.2
09:52 11.7 11.6 99 1020.1 25.9 WSW 34.2 0.0 1.2
09:53 11.6 11.5 99 1020.1 22.1 S 34.2 0.0 1.2
09:54 11.7 11.6 99 1020.2 19.7 WSW 34.2 0.0 1.2
09:55 11.7 11.6 99 1020.2 22.8 WSW 34.2 0.0 1.2
09:56 11.7 11.6 99 1020.1 26.6 S 34.2 0.0 1.2
09:57 11.7 11.6 99 1020.1 25.9 WSW 34.2 0.0 1.2
09:58 11.7 11.6 99 1019.9 28.9 WSW 31.1 0.0 1.2
09:59 11.7 11.6 99 1020.2 28.2 S 31.1 0.0 1.2
10:00 11.7 11.6 99 1020.2 26.6 S 31.1 0.0 1.2
10:02 11.7 11.6 99 1020.2 30.4 WSW 31.1 0.0 1.2
10:03 11.7 11.6 99 1020.3 25.9 S 31.1 0.0 1.2
10:04 11.7 11.6 99 1020.4 24.4 NNW 31.1 0.0 1.2
10:05 11.7 11.6 99 1020.4 24.4 NNW 31.1 0.0 1.2
10:06 11.7 11.6 99 1020.4 21.3 WSW 31.1 0.0 1.2
10:07 11.7 11.6 99 1020.4 21.3 WSW 31.1 0.0 1.2
10:08 11.7 11.6 99 1020.4 21.3 WSW 30.4 0.0 1.2
10:09 11.7 11.6 99 1020.4 21.3 WSW 30.4 0.0 1.2
10:10 11.7 11.6 99 1020.3 21.3 WSW 30.4 0.0 1.2
10:11 11.7 11.6 99 1020.3 22.1 WSW 30.4 0.0 1.2
10:12 11.7 11.6 99 1020.0 17.4 NW 30.4 0.0 1.2
10:13 11.7 11.6 99 1020.2 24.4 S 26.6 0.0 1.2
10:14 11.7 11.6 99 1020.0 24.4 S 24.4 0.0 1.2
10:16 11.7 11.6 99 1020.1 26.6 WSW 26.6 0.0 1.2
10:17 11.7 11.6 99 1020.0 24.4 WNW 26.6 0.0 1.2
10:18 11.7 11.6 99 1020.0 24.4 WNW 26.6 0.0 1.2
10:19 11.8 11.7 99 1020.1 23.5 WSW 26.6 0.0 1.2
10:20 11.8 11.7 99 1020.1 23.5 WSW 26.6 0.0 1.2
10:21 11.8 11.7 99 1020.0 25.9 S 26.6 0.8 1.3
10:22 11.8 11.7 99 1020.2 22.8 WSW 26.6 0.8 1.3
10:23 11.8 11.7 99 1020.2 18.3 S 26.6 0.8 1.3
10:24 11.8 11.7 99 1020.3 18.3 S 26.6 0.8 1.3
10:25 11.8 11.7 99 1020.3 26.6 S 26.6 0.8 1.3
10:26 11.8 11.7 99 1020.3 21.3 WSW 26.6 0.0 1.3
10:27 11.8 11.7 99 1020.4 23.5 SSW 26.6 0.0 1.3
10:28 11.8 11.7 99 1020.5 25.9 WSW 26.6 0.0 1.3
10:30 11.8 11.7 99 1020.4 26.6 WSW 26.6 0.0 1.3
10:31 11.8 11.7 99 1020.3 26.6 WSW 26.6 0.0 1.3
10:32 11.8 11.7 99 1020.5 17.4 SSW 26.6 0.0 1.3
10:33 11.8 11.7 99 1020.5 17.4 SSW 26.6 0.0 1.3
10:34 11.8 11.7 99 1020.5 17.4 SSW 26.6 0.0 1.3
10:35 11.8 11.7 99 1020.4 17.4 SSW 26.6 0.0 1.3
10:36 11.8 11.7 99 1020.5 17.4 SSW 26.6 0.0 1.3
10:37 11.8 11.7 99 1020.5 23.5 WSW 26.6 0.0 1.3
10:38 11.8 11.7 99 1020.4 25.1 S 26.6 0.0 1.3
10:39 11.8 11.7 99 1020.6 31.1 WSW 31.1 0.0 1.3
10:40 11.8 11.7 99 1020.4 22.8 S 31.1 0.0 1.3
10:41 11.8 11.7 99 1020.4 25.1 SE 31.1 0.0 1.3
10:42 11.7 11.6 99 1020.4 25.9 S 31.1 0.0 1.3
10:44 11.8 11.7 99 1020.7 15.9 WSW 31.1 0.0 1.3
10:45 11.8 11.7 99 1020.7 25.9 S 31.1 0.0 1.3
10:46 11.8 11.7 99 1020.8 22.1 S 31.1 0.0 1.3
10:47 11.8 11.7 99 1020.6 21.3 S 31.1 0.0 1.3
10:48 11.8 11.7 99 1020.7 21.3 S 31.1 0.0 1.3
10:49 11.8 11.7 99 1020.7 21.3 WSW 31.1 0.0 1.3
10:50 11.8 11.7 99 1020.7 21.3 WSW 25.9 0.0 1.3
10:51 11.8 11.7 99 1020.6 22.8 S 25.9 0.0 1.3
10:52 11.8 11.7 99 1020.9 22.8 S 25.9 0.0 1.3
10:53 11.8 11.7 99 1020.7 24.4 WNW 25.9 0.0 1.3
10:54 11.8 11.7 99 1020.8 24.4 S 25.9 0.0 1.3
10:55 11.8 11.7 99 1020.9 28.2 WSW 28.2 0.0 1.3
10:56 11.8 11.7 99 1020.9 19.7 N 28.2 0.0 1.3
10:57 11.8 11.7 99 1020.9 19.7 N 28.2 0.0 1.3
10:59 11.8 11.7 99 1020.9 21.3 WSW 28.2 0.0 1.3
11:00 11.8 11.7 99 1020.9 16.8 SE 28.2 0.0 1.3
11:01 11.8 11.7 99 1020.9 24.4 WSW 28.2 0.0 1.3
11:02 11.8 11.7 99 1020.9 22.1 WSW 28.2 0.0 1.3
11:03 11.8 11.7 99 1020.8 24.4 WSW 28.2 0.0 1.3
11:04 11.8 11.7 99 1020.9 21.3 WSW 28.2 0.0 1.3
11:05 11.8 11.7 99 1020.9 25.1 WSW 28.2 0.0 1.3
11:06 11.8 11.7 99 1020.9 16.8 WSW 25.1 0.0 1.3
11:07 11.8 11.7 99 1020.9 22.8 WSW 25.1 0.0 1.3
11:08 11.8 11.7 99 1021.0 14.5 WSW 25.1 0.0 1.3
11:09 11.8 11.7 99 1021.0 14.5 S 25.1 0.0 1.3
11:10 11.8 11.7 99 1020.9 22.1 WSW 25.1 0.0 1.3
11:11 11.8 11.7 99 1020.9 22.1 WSW 25.1 0.8 1.3
11:12 11.8 11.7 99 1021.0 13.6 WSW 25.1 0.8 1.3
11:13 11.8 11.7 99 1020.9 18.3 S 25.1 0.8 1.3
11:14 11.8 11.7 99 1021.0 18.3 S 25.1 0.8 1.3
11:16 11.8 11.7 99 1020.9 22.8 WSW 23.5 0.0 1.3
11:17 11.8 11.7 99 1020.9 25.1 WSW 25.1 0.0 1.3
11:18 11.8 11.7 99 1021.1 19.7 WSW 25.1 0.0 1.3
11:19 11.8 11.7 99 1021.1 19.7 WSW 25.1 0.0 1.3
11:20 11.8 11.7 99 1021.2 19.7 WSW 25.1 0.0 1.3
11:21 11.8 11.7 99 1021.0 17.4 S 25.1 0.0 1.3
11:22 11.8 11.7 99 1021.1 21.3 S 25.1 0.0 1.3
11:23 11.8 11.7 99 1021.1 21.3 S 25.1 0.0 1.3
11:24 11.8 11.7 99 1021.0 24.4 WSW 25.1 0.8 1.4
11:25 11.7 11.6 99 1021.0 24.4 WSW 25.1 0.8 1.4
11:26 11.7 11.6 99 1021.0 19.7 WSW 25.1 0.8 1.4
11:27 11.7 11.6 99 1021.1 21.3 S 25.1 0.8 1.4
11:28 11.7 11.6 99 1021.2 19.0 S 24.4 0.8 1.4
11:29 11.7 11.6 99 1021.0 22.1 WNW 24.4 0.0 1.4
11:31 11.7 11.6 99 1021.3 22.1 S 24.4 0.0 1.4
11:32 11.7 11.6 99 1021.2 21.3 WSW 24.4 0.0 1.4
11:33 11.7 11.6 99 1021.2 15.9 S 24.4 0.0 1.4
11:34 11.7 11.6 99 1021.1 18.3 WSW 24.4 0.0 1.4
11:35 11.7 11.6 99 1021.3 15.9 WSW 24.4 0.0 1.4
11:36 11.7 11.6 99 1021.1 15.2 WSW 24.4 0.0 1.4
11:37 11.7 11.6 99 1021.3 14.5 WSW 24.4 0.0 1.4
11:38 11.6 11.5 99 1021.2 23.5 WSW 24.4 0.8 1.4
11:39 11.6 11.5 99 1021.2 23.5 WSW 24.4 0.8 1.4
11:40 11.6 11.5 99 1021.4 21.3 WSW 24.4 0.8 1.4
11:41 11.6 11.5 99 1021.4 19.7 WSW 28.9 0.8 1.4
11:42 11.6 11.5 99 1021.5 25.1 WSW 28.9 0.8 1.4
11:43 11.5 11.4 99 1021.4 23.5 WSW 28.9 0.0 1.4
11:45 11.4 11.3 99 1021.4 23.5 WSW 28.9 0.0 1.4
11:46 11.4 11.3 99 1021.3 20.6 WSW 28.9 0.0 1.4
11:47 11.4 11.3 99 1021.5 15.9 WNW 28.9 0.0 1.4
11:48 11.4 11.3 99 1021.3 22.8 WSW 28.9 0.0 1.4
11:49 11.4 11.3 99 1021.4 22.8 WSW 28.9 0.0 1.4
11:50 11.4 11.3 99 1021.5 26.6 WSW 28.9 0.0 1.4
11:51 11.3 11.2 99 1021.2 23.5 WNW 28.9 0.0 1.4
11:52 11.3 11.2 99 1021.3 22.8 NW 26.6 0.0 1.4
11:53 11.3 11.2 99 1021.5 22.1 WSW 26.6 0.0 1.4
11:54 11.2 11.1 99 1021.5 19.7 WSW 26.6 0.0 1.4
11:55 11.2 11.1 99 1021.4 19.0 WSW 26.6 0.0 1.4
11:56 11.2 11.1 99 1021.3 18.3 WSW 26.6 0.0 1.4
11:57 11.2 11.1 99 1021.4 20.6 NW 26.6 0.0 1.4
11:59 11.2 11.1 99 1021.6 22.8 WSW 26.6 0.0 1.4
12:00 11.1 11.0 99 1021.5 22.1 WSW 26.6 0.0 1.4
12:01 11.1 11.0 99 1021.5 22.1 WSW 22.8 0.0 1.4
12:02 11.1 11.0 99 1021.4 22.1 WSW 22.8 0.0 1.4
12:03 11.1 11.0 99 1021.5 22.1 WSW 22.8 0.0 1.4
12:04 11.1 11.0 99 1021.4 22.1 WSW 22.8 0.0 1.4
12:05 11.1 11.0 99 1021.4 22.1 WSW 22.8 0.0 1.4
12:06 11.1 11.0 99 1021.3 15.9 S 22.8 0.0 1.4
12:07 11.1 11.0 99 1021.3 17.4 NW 22.8 0.0 1.4
12:08 11.1 11.0 99 1021.5 17.4 S 22.8 0.0 1.4
12:09 11.1 11.0 99 1021.5 18.3 WSW 22.1 0.0 1.4
12:10 11.1 11.0 99 1021.6 18.3 WSW 22.1 0.0 1.4
12:11 11.2 11.1 99 1021.4 15.9 S 22.1 0.0 1.4
12:13 11.2 11.1 99 1021.3 16.8 S 22.1 0.0 1.4
12:14 11.2 11.1 99 1021.5 16.8 S 22.1 0.0 1.4
12:15 11.1 11.0 99 1021.5 18.3 S 18.3 0.0 1.4
12:16 11.1 11.0 99 1021.5 21.3 WSW 21.3 0.0 1.4
12:17 11.1 11.0 99 1021.5 17.4 WSW 21.3 0.0 1.4
12:18 11.1 11.0 99 1021.6 15.9 WSW 21.3 0.0 1.4
12:19 11.1 11.0 99 1021.6 15.9 WSW 21.3 0.0 1.4
12:20 11.1 11.0 99 1021.4 17.4 WSW 21.3 0.0 1.4
12:21 11.1 11.0 99 1021.5 16.8 WSW 21.3 0.0 1.4
12:22 11.1 11.0 99 1021.5 14.5 WSW 21.3 0.0 1.4
12:23 11.1 11.0 99 1021.5 19.7 WSW 21.3 0.0 1.4
12:24 11.1 11.0 99 1021.5 13.0 WSW 21.3 0.0 1.4
12:25 11.1 11.0 99 1021.4 19.7 WSW 21.3 0.0 1.4
12:27 11.1 11.0 99 1021.6 19.7 WSW 19.7 0.0 1.4
12:28 11.1 11.0 99 1021.6 19.0 WSW 20.6 0.8 1.5
12:29 11.1 11.0 99 1021.4 17.4 WSW 20.6 0.8 1.5
12:30 11.1 11.0 99 1021.6 17.4 WSW 20.6 0.8 1.5
12:31 11.1 11.0 99 1021.6 13.0 NW 20.6 0.8 1.5
12:32 11.1 11.0 99 1021.6 17.4 WNW 20.6 0.8 1.5
12:33 11.1 11.0 99 1021.7 17.4 WNW 20.6 0.0 1.5
12:34 11.1 11.0 99 1021.4 18.3 WSW 20.6 0.0 1.5
12:35 11.1 11.0 99 1021.5 16.8 WSW 20.6 0.0 1.5
12:36 11.1 11.0 99 1021.6 16.8 N 20.6 0.0 1.5
12:37 11.1 11.0 99 1021.7 19.0 WSW 20.6 0.0 1.5
12:38 11.1 11.0 99 1021.7 15.2 WSW 20.6 0.0 1.5
12:39 11.1 11.0 99 1021.7 15.2 S 20.6 0.0 1.5
12:41 11.1 11.0 99 1021.8 13.6 SE 20.6 0.0 1.5
12:42 11.1 11.0 99 1021.7 15.2 WSW 20.6 0.0 1.5
12:43 11.0 10.9 99 1021.8 14.5 S 20.6 0.0 1.5
12:44 11.0 10.9 99 1021.9 19.0 S 19.0 0.0 1.5
12:45 11.0 10.9 99 1021.8 14.5 WSW 19.0 0.0 1.5
12:46 11.0 10.9 99 1022.1 22.1 WSW 22.1 0.0 1.5
12:47 11.0 10.9 99 1022.0 21.3 WSW 22.1 0.0 1.5
12:48 11.0 10.9 99 1021.7 13.6 WSW 22.1 0.0 1.5
12:49 11.0 10.9 99 1022.0 13.0 WSW 22.1 0.0 1.5
12:50 10.9 10.8 99 1021.8 12.1 S 22.1 0.0 1.5
12:51 10.9 10.8 99 1021.9 12.1 WSW 22.1 0.0 1.5
12:52 11.0 10.9 99 1021.8 13.0 WSW 22.1 0.0 1.5
12:53 11.0 10.9 99 1021.9 15.9 WSW 22.1 0.0 1.5
12:55 10.9 10.8 99 1021.9 13.6 WSW 22.1 0.0 1.5
12:56 10.9 10.8 99 1021.9 19.7 S 22.1 0.0 1.5
12:57 10.9 10.8 99 1021.9 15.9 WSW 19.7 0.0 1.5
12:58 10.9 10.8 99 1021.8 15.2 WSW 19.7 0.0 1.5
12:59 10.9 10.8 99 1022.0 15.2 WSW 19.7 0.0 1.5
13:00 10.9 10.8 99 1021.8 10.7 S 19.7 0.0 1.5
13:01 10.9 10.8 99 1021.9 10.7 S 19.7 0.0 1.5
13:02 10.9 10.8 99 1021.8 10.7 S 19.7 0.0 1.5
13:03 10.9 10.8 99 1021.9 10.7 S 19.7 0.0 1.5
13:04 10.9 10.8 99 1021.8 10.7 S 19.7 0.0 1.5
13:05 11.0 10.9 99 1021.9 14.5 WSW 19.7 0.0 1.5
13:06 11.0 10.9 99 1021.9 14.5 WSW 19.7 0.0 1.5
13:07 11.0 10.9 99 1021.9 15.9 WSW 15.9 0.0 1.5
13:09 10.9 10.8 99 1021.9 14.5 WSW 19.0 0.8 1.6
13:10 10.9 10.8 99 1021.9 13.6 WSW 19.0 0.8 1.6
13:11 10.9 10.8 99 1022.0 13.0 WSW 19.0 0.8 1.6
13:12 10.9 10.8 99 1022.0 15.2 WSW 19.0 0.8 1.6
13:13 10.9 10.8 99 1022.0 15.9 N 19.0 0.0 1.6
13:14 10.9 10.8 99 1022.1 17.4 WNW 19.0 0.0 1.6
13:15 10.9 10.8 99 1022.1 15.2 WSW 19.0 0.0 1.6
13:16 10.9 10.8 99 1021.9 10.7 NW 19.0 0.0 1.6
13:17 10.9 10.8 99 1022.0 14.5 WSW 19.0 0.0 1.6
13:18 10.9 10.8 99 1021.9 13.6 N 19.0 0.0 1.6
13:19 10.9 10.8 99 1021.9 14.5 N 17.4 0.0 1.6
13:20 10.9 10.8 99 1022.0 15.9 S 17.4 0.0 1.6
13:21 11.0 10.9 99 1022.1 15.2 WSW 17.4 0.0 1.6
13:22 11.0 10.9 99 1021.8 15.2 WSW 17.4 0.0 1.6
13:24 11.0 10.9 99 1022.0 15.2 WSW 17.4 0.0 1.6
13:25 11.0 10.9 99 1022.1 15.2 WSW 16.8 0.0 1.6
13:26 11.0 10.9 99 1022.0 14.5 SE 16.8 0.0 1.6
13:27 11.0 10.9 99 1022.1 15.2 NW 16.8 0.0 1.6
13:28 11.0 10.9 99 1022.1 14.5 NW 15.9 0.0 1.6
13:29 10.9 10.8 99 1021.9 12.1 WSW 15.9 0.0 1.6
13:30 10.9 10.8 99 1022.0 9.8 WSW 15.9 0.0 1.6
13:31 10.9 10.8 99 1022.0 15.2 WNW 15.2 0.0 1.6
13:32 10.8 10.7 99 1022.1 15.9 W 15.9 0.0 1.6
13:33 10.8 10.7 99 1021.9 13.0 W 15.9 0.0 1.6
13:34 10.8 10.7 99 1022.2 16.8 WSW 16.8 0.0 1.6
13:35 10.8 10.7 99 1021.8 17.4 NW 17.4 0.0 1.6
13:36 10.8 10.7 99 1022.0 13.0 WSW 17.4 0.0 1.6
13:37 10.7 10.6 99 1022.0 9.8 S 17.4 0.0 1.6
13:39 10.7 10.6 99 1022.0 13.0 WSW 17.4 0.0 1.6
13:40 10.7 10.6 99 1022.2 15.9 WSW 17.4 0.8 1.6
13:41 10.6 10.5 99 1022.1 14.5 WSW 17.4 0.8 1.6
13:42 10.6 10.5 99 1022.1 13.6 NW 17.4 0.8 1.6
13:43 10.6 10.5 99 1022.1 11.4 W 17.4 0.8 1.6
13:44 10.5 10.4 99 1022.0 16.8 W 17.4 0.8 1.6
13:45 10.5 10.4 99 1022.1 15.2 S 17.4 0.0 1.6
13:46 10.5 10.4 99 1022.2 11.4 WSW 16.8 0.0 1.6
13:47 10.5 10.4 99 1022.1 16.8 WSW 16.8 0.0 1.6
13:48 10.4 10.3 99 1022.3 19.7 NW 19.7 0.0 1.6
13:49 10.4 10.3 99 1022.4 17.4 WSW 19.7 0.0 1.6
13:50 10.4 10.3 99 1022.3 17.4 WSW 19.7 0.0 1.6
13:51 10.4 10.3 99 1022.4 11.4 W 19.7 0.0 1.6
13:53 10.4 10.3 99 1022.3 18.3 WSW 19.7 0.0 1.6
13:54 10.4 10.3 99 1022.3 15.9 NW 19.7 0.0 1.6
13:55 10.4 10.3 99 1022.2 15.9 WSW 19.7 0.0 1.6
13:56 10.4 10.3 99 1022.1 13.0 W 19.7 0.0 1.6
13:57 10.4 10.3 99 1022.2 15.2 S 19.7 0.0 1.6
13:58 10.4 10.3 99 1022.2 10.7 WSW 19.7 0.0 1.6
13:59 10.4 10.3 99 1022.3 14.5 WSW 18.3 0.0 1.6
14:00 10.4 10.3 99 1022.3 12.1 WSW 18.3 0.0 1.6
14:01 10.4 10.3 99 1022.4 12.1 WSW 18.3 0.0 1.6
14:02 10.4 10.3 99 1022.1 12.1 WSW 18.3 0.0 1.6
14:03 10.4 10.3 99 1022.2 12.1 WSW 18.3 0.0 1.6
14:04 10.4 10.3 99 1022.2 12.1 WSW 15.9 0.0 1.6
14:05 10.5 10.4 99 1022.1 17.4 WSW 17.4 0.0 1.6
14:06 10.5 10.4 99 1022.1 17.4 WSW 17.4 0.0 1.6
14:08 10.4 10.3 99 1022.2 14.5 NW 17.4 0.0 1.6
14:09 10.4 10.3 99 1022.2 11.4 W 17.4 0.0 1.6
14:10 10.4 10.3 99 1022.2 8.3 NW 17.4 0.0 1.6
14:11 10.4 10.3 99 1022.4 8.3 NW 17.4 0.0 1.6
14:12 10.4 10.3 99 1022.3 15.2 WSW 17.4 0.0 1.6
14:13 10.4 10.3 99 1022.1 13.0 NW 17.4 0.0 1.6
14:14 10.4 10.3 99 1022.2 13.0 WSW 17.4 0.0 1.6
14:15 10.4 10.3 99 1022.2 14.5 WSW 17.4 0.0 1.6
14:16 10.4 10.3 99 1022.1 12.1 W 17.4 0.0 1.6
14:17 10.4 10.3 99 1022.3 12.1 W 15.2 0.0 1.6
14:18 10.4 10.3 99 1022.3 13.6 WSW 15.2 0.8 1.7
14:19 10.4 10.3 99 1022.3 13.6 WSW 15.2 0.8 1.7
14:20 10.4 10.3 99 1022.2 12.1 WSW 15.2 0.8 1.7
14:22 10.4 10.3 99 1022.2 9.2 WSW 14.5 0.8 1.7
14:23 10.4 10.3 99 1022.2 14.5 WNW 14.5 0.0 1.7
14:24 10.4 10.3 99 1022.3 15.2 WNW 15.2 0.0 1.7
14:25 10.4 10.3 99 1022.3 15.2 WNW 15.2 0.0 1.7
14:26 10.3 10.2 99 1022.3 8.3 WSW 15.2 0.0 1.7
14:27 10.3 10.2 99 1022.3 9.2 W 15.2 0.0 1.7
14:28 10.3 10.2 99 1022.3 10.7 NW 15.2 0.0 1.7
14:29 10.3 10.2 99 1022.4 11.4 W 15.2 0.0 1.7
14:30 10.3 10.2 99 1022.4 11.4 W 15.2 0.0 1.7
14:31 10.2 10.1 99 1022.3 10.7 WSW 15.2 0.0 1.7
14:32 10.2 10.1 99 1022.3 13.0 WSW 15.2 0.0 1.7
14:33 10.2 10.1 99 1022.4 13.0 W 15.2 0.0 1.8
14:34 10.1 10.0 99 1022.4 11.4 WSW 15.2 0.8 1.8
14:36 10.1 10.0 99 1022.4 9.8 WSW 14.5 0.8 1.8
14:37 10.1 10.0 99 1022.4 9.2 NW 14.5 0.8 1.8
14:38 10.1 10.0 99 1022.4 9.2 NW 14.5 0.8 1.8
14:39 10.1 10.0 99 1022.4 8.3 WSW 14.5 0.0 1.8
14:40 10.1 10.0 99 1022.4 8.3 SSW 14.5 0.0 1.8
14:41 10.1 10.0 99 1022.4 10.7 WSW 14.5 0.0 1.8
14:42 10.0 9.9 99 1022.4 9.2 WSW 14.5 0.0 1.8
14:43 10.0 9.9 99 1022.4 9.2 WSW 14.5 0.0 1.8
14:44 10.0 9.9 99 1022.4 7.6 WSW 14.5 0.0 1.8
14:45 10.0 9.9 99 1022.4 9.8 WSW 14.5 0.0 1.8
14:46 10.0 9.9 99 1022.3 10.7 WSW 11.4 0.0 1.8
14:47 10.0 9.9 99 1022.4 13.6 NW 13.6 0.0 1.8
14:48 10.0 9.9 99 1022.4 10.7 WSW 13.6 0.0 1.8
14:49 10.0 9.9 99 1022.5 7.6 WSW 13.6 0.0 1.8
14:51 10.0 9.9 99 1022.6 7.6 WSW 13.6 0.0 1.8
14:52 10.0 9.9 99 1022.4 13.6 WSW 13.6 0.0 1.8
14:53 10.0 9.9 99 1022.5 7.6 WSW 13.6 0.0 1.8
14:54 10.0 9.9 99 1022.4 13.0 WSW 13.6 0.0 1.8
14:55 10.0 9.9 99 1022.6 16.8 S 16.8 0.0 1.8
14:56 9.9 9.8 99 1022.6 14.5 W 16.8 0.8 1.8
14:57 9.9 9.8 99 1022.5 12.1 WSW 16.8 0.8 1.8
14:58 9.8 9.7 99 1022.4 13.0 S 16.8 0.8 1.8
14:59 9.8 9.7 99 1022.4 13.0 WSW 16.8 0.8 1.8
15:00 9.8 9.7 99 1022.4 15.2 WSW 16.8 0.8 1.8
15:01 9.8 9.7 99 1022.4 15.2 WSW 16.8 0.0 1.8
15:02 9.8 9.7 99 1022.4 15.2 WSW 16.8 0.0 1.8
15:03 9.8 9.7 99 1022.4 15.2 WSW 16.8 0.0 1.8
15:05 9.8 9.7 99 1022.4 10.7 W 15.2 0.0 1.8
15:06 9.7 9.6 99 1022.5 9.2 W 15.2 0.0 1.8
15:07 9.8 9.7 99 1022.4 10.7 S 15.2 0.0 1.8
15:08 9.8 9.7 99 1022.3 15.2 WSW 15.2 0.0 1.8
15:09 9.7 9.6 99 1022.4 10.7 WSW 15.2 0.0 1.8
15:10 9.7 9.6 99 1022.2 9.8 WSW 15.2 0.0 1.8
15:11 9.8 9.7 99 1022.3 10.7 WSW 15.2 0.0 1.8
15:12 9.8 9.7 99 1022.3 9.8 WSW 15.2 0.0 1.8
15:13 9.8 9.7 99 1022.3 10.7 WSW 15.2 0.0 1.8
15:14 9.8 9.7 99 1022.2 9.8 WSW 15.2 0.0 1.8
15:15 9.9 9.8 99 1022.1 13.0 W 15.2 0.0 1.8
15:16 9.9 9.8 99 1022.3 9.8 WSW 15.2 0.0 1.8
15:17 9.9 9.8 99 1022.2 10.7 WSW 15.2 0.0 1.8
15:18 9.9 9.8 99 1022.4 10.7 WSW 13.6 0.0 1.8
15:20 10.0 9.9 99 1022.4 14.5 WSW 14.5 0.0 1.8
15:21 10.0 9.9 99 1022.4 12.1 NW 14.5 0.0 1.8
15:22 10.0 9.9 99 1022.3 8.3 WSW 14.5 0.0 1.8
15:23 10.0 9.9 99 1022.1 11.4 W 14.5 0.0 1.8
15:24 10.0 9.9 99 1022.3 10.7 WSW 14.5 0.0 1.8
15:25 10.0 9.9 99 1022.2 9.8 NW 14.5 0.0 1.8
15:26 10.0 9.9 99 1022.1 12.1 WSW 15.2 0.0 1.8
15:27 10.0 9.9 99 1022.2 7.6 WSW 15.2 0.0 1.8
15:28 10.0 9.9 99 1022.2 7.6 WSW 15.2 0.0 1.8
15:29 10.0 9.9 99 1022.2 11.4 WSW 15.2 0.0 1.8
15:30 10.0 9.9 99 1022.4 10.7 WSW 15.2 0.0 1.8
15:31 10.0 9.9 99 1022.3 9.8 WSW 15.2 0.0 1.8
15:32 10.1 10.0 99 1022.4 12.1 NW 15.2 0.0 1.8
15:33 10.1 10.0 99 1022.4 9.2 NW 15.2 0.0 1.8
15:35 10.1 10.0 99 1022.3 11.4 S 15.2 0.0 1.8
15:36 10.1 10.0 99 1022.6 13.6 WSW 13.6 0.0 1.8
15:37 10.2 10.1 99 1022.4 12.1 WSW 13.6 0.0 1.8
15:38 10.1 10.0 99 1022.5 11.4 WSW 13.6 0.0 1.8
15:39 10.1 10.0 99 1022.6 12.1 WSW 13.6 0.0 1.8
15:40 10.1 10.0 99 1022.5 10.7 WSW 13.6 0.0 1.8
15:41 10.1 10.0 99 1022.4 9.2 NW 13.6 0.0 1.8
15:42 10.1 10.0 99 1022.5 9.2 WSW 13.6 0.0 1.8
15:43 10.1 10.0 99 1022.6 10.7 WNW 13.6 0.0 1.8
15:44 10.1 10.0 99 1022.7 9.2 WSW 13.6 0.0 1.8
15:45 10.1 10.0 99 1022.5 6.0 WSW 13.6 0.0 1.8
15:46 10.0 9.9 99 1022.4 8.3 W 13.6 0.0 1.8
15:47 10.0 9.9 99 1022.7 6.9 W 12.1 0.0 1.8
15:49 10.0 9.9 99 1022.7 10.7 WSW 11.4 0.0 1.8
15:50 10.0 9.9 99 1022.6 7.6 SE 11.4 0.0 1.8
15:51 9.9 9.8 99 1022.5 8.3 WSW 11.4 0.0 1.8
15:52 9.9 9.8 99 1022.5 8.3 S 10.7 0.0 1.8
15:53 9.9 9.8 99 1022.5 8.3 S 10.7 0.0 1.8
15:54 9.8 9.7 99 1022.6 8.3 WSW 10.7 0.0 1.8
15:55 9.8 9.7 99 1022.6 9.2 WSW 10.7 0.0 1.8
15:56 9.8 9.7 99 1022.5 9.8 W 10.7 0.0 1.8
15:57 9.8 9.7 99 1022.5 9.8 WSW 10.7 0.0 1.8
15:58 9.8 9.7 99 1022.4 7.6 WSW 11.4 0.0 1.8
15:59 9.7 9.6 99 1022.5 6.0 WSW 11.4 0.0 1.8
16:00 9.7 9.6 99 1022.8 6.0 WSW 11.4 0.0 1.8
16:01 9.7 9.6 99 1022.6 6.0 WSW 11.4 0.0 1.8
16:02 9.7 9.6 99 1022.7 6.0 WSW 11.4 0.0 1.8
16:04 9.7 9.6 99 1022.8 6.0 WSW 11.4 0.0 1.8
16:05 9.7 9.6 99 1022.8 7.6 WSW 11.4 0.0 1.8
16:06 9.7 9.6 99 1022.8 9.8 WSW 11.4 0.0 1.8
16:07 9.7 9.6 99 1022.9 8.3 WSW 11.4 0.0 1.8
16:08 9.7 9.6 99 1022.9 6.0 W 9.8 0.0 1.8
16:09 9.6 9.5 99 1022.8 9.8 WSW 9.8 0.0 1.8
16:10 9.6 9.5 99 1022.8 8.3 WSW 9.8 0.0 1.8
16:11 9.6 9.5 99 1022.9 6.9 WSW 9.8 0.0 1.8
16:12 9.6 9.5 99 1022.8 6.0 W 9.8 0.0 1.8
16:13 9.5 9.4 99 1022.9 5.4 S 9.8 0.0 1.8
16:14 9.5 9.4 99 1022.8 8.3 WSW 9.8 0.0 1.8
16:15 9.5 9.4 99 1023.0 8.3 S 9.8 0.0 1.8
16:16 9.5 9.4 99 1023.0 7.6 S 9.8 0.0 1.8
16:18 9.5 9.4 99 1022.9 7.6 W 9.8 0.0 1.8
16:19 9.5 9.4 99 1023.0 5.4 WSW 9.2 0.0 1.8
16:20 9.5 9.4 99 1023.0 7.6 WSW 9.2 0.0 1.8
16:21 9.5 9.4 99 1023.0 7.6 WSW 9.2 0.0 1.8
16:22 9.5 9.4 99 1022.9 5.4 WSW 9.2 0.0 1.8
16:23 9.5 9.4 99 1023.0 6.9 WSW 9.2 0.0 1.8
16:24 9.5 9.4 99 1023.1 6.9 WSW 9.2 0.0 1.8
16:25 9.5 9.4 99 1023.0 9.2 WSW 9.2 0.0 1.8
16:26 9.5 9.4 99 1023.0 6.9 WSW 9.2 0.0 1.8
16:27 9.5 9.4 99 1023.0 4.5 WSW 9.2 0.0 1.8
16:28 9.5 9.4 99 1023.1 7.6 WSW 9.2 0.0 1.8
16:29 9.5 9.4 99 1023.1 6.9 WSW 9.2 0.0 1.8
16:30 9.6 9.5 99 1023.1 6.0 W 9.2 0.0 1.8
16:32 9.5 9.4 99 1023.1 8.3 WSW 9.2 0.0 1.8
16:33 9.5 9.4 99 1023.0 7.6 WSW 9.2 0.0 1.8
16:34 9.5 9.4 99 1023.1 6.0 WSW 9.2 0.0 1.8
16:35 9.5 9.4 99 1023.2 6.9 WSW 9.2 0.0 1.8
16:36 9.5 9.4 99 1023.0 6.0 W 8.3 0.0 1.8
16:37 9.5 9.4 99 1023.0 6.0 WSW 8.3 0.0 1.8
16:38 9.5 9.4 99 1023.1 5.4 W 8.3 0.0 1.8
16:39 9.5 9.4 99 1023.1 6.9 WSW 8.3 0.0 1.8
16:40 9.5 9.4 99 1023.1 5.4 WSW 8.3 0.0 1.8
16:41 9.5 9.4 99 1023.2 5.4 WSW 8.3 0.0 1.8
16:42 9.6 9.5 99 1023.0 6.0 WSW 8.3 0.0 1.8
16:43 9.5 9.4 99 1023.0 5.4 WSW 7.6 0.0 1.8
16:44 9.6 9.5 99 1023.2 5.4 W 7.6 0.0 1.8
16:46 9.5 9.4 99 1023.2 4.5 WSW 7.6 0.0 1.8
16:47 9.5 9.4 99 1023.2 6.0 WSW 7.6 0.0 1.8
16:48 9.5 9.4 99 1023.3 5.4 WSW 6.9 0.0 1.8
16:49 9.5 9.4 99 1023.3 5.4 WSW 6.9 0.0 1.8
16:50 9.5 9.4 99 1023.2 4.5 WSW 6.9 0.0 1.8
16:51 9.6 9.5 99 1023.3 6.0 NW 6.9 0.0 1.8
16:52 9.5 9.4 99 1023.3 6.9 WSW 6.9 0.0 1.8
16:53 9.5 9.4 99 1023.4 6.9 WSW 6.9 0.0 1.8
16:54 9.5 9.4 99 1023.3 6.9 WSW 6.9 0.0 1.8
16:55 9.6 9.5 99 1023.2 6.0 WSW 6.9 0.0 1.8
16:56 9.5 9.4 99 1023.1 6.0 NW 6.9 0.0 1.8
16:57 9.5 9.4 99 1023.3 6.0 WSW 7.6 0.0 1.8
16:58 9.5 9.4 99 1023.1 7.6 WSW 7.6 0.0 1.8
17:00 9.5 9.4 99 1023.4 9.2 S 9.2 0.0 1.8
17:01 9.5 9.4 99 1023.2 9.2 S 9.2 0.0 1.8
17:02 9.5 9.4 99 1023.1 9.2 S 9.2 0.0 1.8
17:03 9.5 9.4 99 1023.3 9.2 S 9.2 0.0 1.8
17:04 9.5 9.4 99 1023.2 9.2 S 9.2 0.0 1.8
17:05 9.5 9.4 99 1023.0 9.2 S 9.2 0.0 1.8
17:06 9.4 9.3 99 1023.3 5.4 W 9.2 0.0 1.8
17:07 9.4 9.3 99 1023.1 6.9 W 9.2 0.0 1.8
17:08 9.4 9.3 99 1023.2 4.5 WSW 9.2 0.0 1.8
17:09 9.4 9.3 99 1023.2 3.8 WSW 9.2 0.0 1.8
17:10 9.4 9.3 99 1023.1 6.0 S 9.2 0.0 1.8
17:11 9.4 9.3 99 1023.2 5.4 S 9.2 0.0 1.8
17:12 9.4 9.3 99 1023.3 8.3 S 9.2 0.0 1.8
17:13 9.4 9.3 99 1023.2 6.9 S 9.2 0.0 1.8
17:14 9.4 9.3 99 1023.4 7.6 WSW 9.2 0.0 1.8
17:16 9.4 9.3 99 1023.1 6.0 S 8.3 0.0 1.8
17:17 9.4 9.3 99 1023.2 5.4 S 8.3 0.0 1.8
17:18 9.3 9.2 99 1023.1 5.4 S 8.3 0.0 1.8
17:19 9.4 9.3 99 1023.0 7.6 S 8.3 0.0 1.8
17:20 9.3 9.2 99 1023.1 8.3 SSW 8.3 0.0 1.8
17:21 9.3 9.2 99 1023.0 7.6 WSW 8.3 0.0 1.8
17:22 9.3 9.2 99 1022.9 5.4 WSW 8.3 0.0 1.8
17:23 9.3 9.2 99 1023.0 5.4 SSW 8.3 0.0 1.8
17:24 9.3 9.2 99 1022.9 6.9 WSW 8.3 0.0 1.8
17:25 9.3 9.2 99 1023.0 6.9 WSW 8.3 0.0 1.8
17:26 9.3 9.2 99 1023.1 7.6 WSW 8.3 0.0 1.8
17:27 9.3 9.2 99 1023.2 7.6 WSW 8.3 0.0 1.8
17:28 9.3 9.2 99 1023.2 5.4 WSW 8.3 0.0 1.8
17:30 9.3 9.2 99 1023.1 4.5 WSW 7.6 0.0 1.8
17:31 9.2 9.1 99 1023.2 5.4 WSW 7.6 0.0 1.8
17:32 9.2 9.1 99 1023.1 5.4 WSW 7.6 0.0 1.8
17:33 9.2 9.1 99 1023.1 3.8 S 7.6 0.0 1.8
17:34 9.2 9.1 99 1023.1 5.4 S 7.6 0.0 1.8
17:35 9.2 9.1 99 1023.1 4.5 S 7.6 0.0 1.8
17:36 9.2 9.1 99 1023.1 5.4 S 7.6 0.0 1.8
17:37 9.2 9.1 99 1023.1 5.4 WSW 7.6 0.0 1.8
17:38 9.2 9.1 99 1023.3 5.4 WSW 6.0 0.0 1.8
17:39 9.2 9.1 99 1023.1 4.5 S 6.0 0.0 1.8
17:40 9.2 9.1 99 1023.1 7.6 SSW 7.6 0.0 1.8
17:41 9.2 9.1 99 1023.2 6.0 WSW 7.6 0.0 1.8
17:42 9.2 9.1 99 1023.2 6.0 S 7.6 0.0 1.8
17:43 9.2 9.1 99 1023.2 3.8 S 7.6 0.0 1.8
17:45 9.2 9.1 99 1023.2 6.0 WSW 7.6 0.0 1.8
17:46 9.2 9.1 99 1023.2 5.4 S 7.6 0.0 1.8
17:47 9.2 9.1 99 1023.2 6.9 S 7.6 0.0 1.8
17:48 9.1 9.0 99 1023.1 6.0 S 7.6 0.0 1.8
17:49 9.1 9.0 99 1023.2 6.0 S 7.6 0.0 1.8
17:50 9.1 9.0 99 1023.2 7.6 WSW 7.6 0.0 1.8
17:51 9.1 9.0 99 1023.3 6.0 S 7.6 0.0 1.8
17:52 9.1 9.0 99 1023.3 6.0 WSW 7.6 0.0 1.8
17:53 9.1 9.0 99 1023.4 6.0 WSW 7.6 0.0 1.8
17:54 9.1 9.0 99 1023.2 6.0 S 7.6 0.0 1.8
17:55 9.1 9.0 99 1023.4 6.9 WSW 7.6 0.0 1.8
17:56 9.1 9.0 99 1023.3 8.3 WSW 8.3 0.0 1.8
17:57 9.1 9.0 99 1023.4 6.9 S 8.3 0.0 1.8
17:58 9.1 9.0 99 1023.4 3.8 S 8.3 0.0 1.8
18:00 9.1 9.0 99 1023.2 6.0 S 8.3 0.0 1.8
18:01 9.1 9.0 99 1023.4 6.0 S 8.3 0.0 1.8
18:02 9.1 9.0 99 1023.4 6.0 S 8.3 0.0 1.8
18:03 9.1 9.0 99 1023.4 6.0 S 8.3 0.0 1.8
18:04 9.1 9.0 99 1023.5 6.0 S 8.3 0.0 1.8
18:05 9.1 9.0 99 1023.4 6.0 S 8.3 0.0 1.8
18:06 9.0 8.9 99 1023.3 6.9 S 6.9 0.0 1.8
18:07 9.0 8.9 99 1023.4 7.6 S 7.6 0.0 1.8
18:08 9.0 8.9 99 1023.4 7.6 S 7.6 0.0 1.8
18:09 9.0 8.9 99 1023.3 6.9 S 7.6 0.0 1.8
18:10 9.0 8.9 99 1023.3 5.4 SE 7.6 0.0 1.8
18:11 9.0 8.9 99 1023.4 6.0 S 7.6 0.0 1.8
18:12 9.0 8.9 99 1023.4 6.0 S 7.6 0.0 1.8
18:13 9.0 8.9 99 1023.5 4.5 WSW 7.6 0.0 1.8
18:14 9.0 8.9 99 1023.3 4.5 WSW 7.6 0.0 1.8
18:16 9.0 8.9 99 1023.3 4.5 WSW 7.6 0.0 1.8
18:17 9.0 8.9 99 1023.4 3.8 S 7.6 0.0 1.8
18:18 9.0 8.9 99 1023.4 3.8 WSW 6.9 0.0 1.8
18:19 9.0 8.9 99 1023.4 3.8 S 6.9 0.0 1.8
18:20 9.0 8.9 99 1023.4 5.4 S 6.0 0.0 1.8
18:21 9.0 8.9 99 1023.4 6.9 S 6.9 0.0 1.8
18:22 9.0 8.9 99 1023.7 5.4 WSW 6.9 0.0 1.8
18:23 9.0 8.9 99 1023.6 5.4 WSW 6.9 0.0 1.8
18:24 8.9 8.8 99 1023.4 4.5 WSW 6.9 0.0 1.8
18:25 8.9 8.8 99 1023.5 4.5 WSW 6.9 0.0 1.8
18:26 8.9 8.8 99 1023.5 5.4 S 6.9 0.0 1.8
18:27 8.9 8.8 99 1023.5 5.4 S 6.9 0.0 1.8
18:28 8.9 8.8 99 1023.5 3.8 SE 6.9 0.0 1.8
18:29 8.9 8.8 99 1023.6 6.0 S 6.9 0.0 1.8
18:31 8.9 8.8 99 1023.5 5.4 S 6.9 0.0 1.8
18:32 8.9 8.8 99 1023.5 4.5 WSW 6.9 0.0 1.8
18:33 8.9 8.8 99 1023.6 5.4 S 6.9 0.0 1.8
18:34 8.9 8.8 99 1023.7 4.5 WSW 6.9 0.0 1.8
18:35 8.9 8.8 99 1023.6 3.8 WSW 6.9 0.0 1.8
18:36 8.9 8.8 99 1023.7 5.4 S 6.9 0.0 1.8
18:37 8.9 8.8 99 1023.7 6.9 WSW 6.9 0.0 1.8
18:38 8.9 8.8 99 1023.6 3.1 WSW 6.9 0.0 1.8
18:39 8.9 8.8 99 1023.6 4.5 S 6.9 0.0 1.8
18:40 8.9 8.8 99 1023.5 4.5 WSW 6.9 0.0 1.8
18:41 8.9 8.8 99 1023.5 3.8 S 6.9 0.0 1.8
18:42 8.9 8.8 99 1023.5 4.5 WSW 6.9 0.0 1.8
18:43 8.9 8.8 99 1023.5 3.8 WSW 6.9 0.0 1.8
18:45 8.9 8.8 99 1023.5 4.5 S 6.9 0.0 1.8
18:46 8.9 8.8 99 1023.6 3.1 S 6.9 0.0 1.8
18:47 8.9 8.8 99 1023.6 4.5 WSW 5.4 0.0 1.8
18:48 8.9 8.8 99 1023.5 4.5 S 4.5 0.0 1.8
18:49 8.9 8.8 99 1023.6 3.8 S 4.5 0.0 1.8
18:50 8.9 8.8 99 1023.5 3.8 S 4.5 0.0 1.8
18:51 8.9 8.8 99 1023.4 3.8 S 4.5 0.0 1.8
18:52 8.9 8.8 99 1023.4 3.8 S 4.5 0.0 1.8
18:53 8.9 8.8 99 1023.5 3.1 S 4.5 0.0 1.8
18:54 8.9 8.8 99 1023.4 3.1 S 4.5 0.0 1.8
18:55 8.9 8.8 99 1023.4 4.5 S 4.5 0.0 1.8
18:56 8.9 8.8 99 1023.4 4.5 SSW 5.4 0.0 1.8
18:57 8.9 8.8 99 1023.4 5.4 S 5.4 0.0 1.8
18:59 8.9 8.8 99 1023.4 3.8 S 5.4 0.0 1.8
19:00 8.9 8.8 99 1023.3 2.2 S 5.4 0.0 1.8
19:01 8.9 8.8 99 1023.3 2.2 S 5.4 0.0 1.8
19:02 8.9 8.8 99 1023.3 2.2 S 5.4 0.0 1.8
19:03 8.9 8.8 99 1023.3 2.2 S 5.4 0.0 1.8
19:04 8.9 8.8 99 1023.2 2.2 S 5.4 0.0 1.8
19:05 8.9 8.8 99 1023.1 2.2 S 5.4 0.0 1.8
19:06 8.9 8.8 99 1023.1 3.8 S 5.4 0.8 1.9
19:07 8.8 8.7 99 1023.3 4.5 SE 5.4 0.8 1.9
19:08 8.9 8.8 99 1023.2 3.8 SE 4.5 0.8 1.9
19:09 8.9 8.8 99 1023.2 3.1 SE 4.5 0.8 1.9
19:10 8.9 8.8 99 1023.3 3.8 S 4.5 0.8 1.9
19:11 8.9 8.8 99 1023.2 3.1 S 4.5 0.0 1.9
19:12 8.9 8.8 99 1023.2 5.4 SE 5.4 0.0 1.9
19:13 8.9 8.8 99 1023.2 3.8 S 5.4 0.0 1.9
19:15 8.9 8.8 99 1023.1 4.5 S 5.4 0.0 1.9
19:16 8.9 8.8 99 1023.2 4.5 SE 5.4 0.0 1.9
19:17 8.9 8.8 99 1023.1 4.5 SSE 5.4 0.0 1.9
19:18 8.9 8.8 99 1023.0 5.4 SE 5.4 0.0 1.9
19:19 8.9 8.8 99 1023.2 3.1 SE 5.4 0.0 1.9
19:20 8.9 8.8 99 1023.1 3.8 S 5.4 0.0 1.9
19:21 8.9 8.8 99 1023.1 4.5 S 5.4 0.0 1.9
19:22 8.9 8.8 99 1023.1 4.5 S 5.4 0.0 1.9
19:23 8.9 8.8 99 1023.2 4.5 S 5.4 0.0 1.9
19:24 8.9 8.8 99 1023.1 4.5 S 5.4 0.0 1.9
19:25 8.9 8.8 99 1023.2 3.8 S 5.4 0.0 1.9
19:26 8.9 8.8 99 1023.3 4.5 SE 5.4 0.0 1.9
19:27 8.9 8.8 99 1023.3 3.1 S 5.4 0.0 1.9
19:28 8.9 8.8 99 1023.2 5.4 SE 5.4 0.0 1.9
19:29 8.9 8.8 99 1023.3 4.5 SE 5.4 0.0 1.9
19:30 8.9 8.8 99 1023.3 5.4 S 5.4 0.0 1.9
19:32 9.0 8.9 99 1023.4 5.4 SE 5.4 0.0 2.0
19:33 9.0 8.9 99 1023.3 5.4 SSE 5.4 0.8 2.0
19:34 8.9 8.8 99 1023.1 4.5 S 5.4 0.8 2.0
19:35 9.0 8.9 99 1023.2 4.5 SE 5.4 0.8 2.0
19:36 9.0 8.9 99 1023.3 4.5 SE 5.4 0.8 2.0
19:37 9.0 8.9 99 1023.2 3.8 S 5.4 0.8 2.0
19:38 9.0 8.9 99 1023.2 2.2 S 5.4 0.0 2.0
19:39 9.0 8.9 99 1023.3 2.2 E 5.4 0.0 2.0
19:40 9.0 8.9 99 1023.2 3.8 S 5.4 0.0 2.0
19:41 9.0 8.9 99 1023.2 3.8 S 5.4 0.0 2.0
19:42 9.0 8.9 99 1023.2 3.8 S 5.4 0.0 2.0
19:43 9.0 8.9 99 1023.1 5.4 S 5.4 0.0 2.0
19:44 9.0 8.9 99 1023.1 3.8 S 5.4 0.0 2.0
19:45 9.0 8.9 99 1023.2 5.4 S 5.4 0.0 2.0
19:46 9.0 8.9 99 1023.2 3.1 S 5.4 0.0 2.0
19:48 9.0 8.9 99 1023.0 4.5 S 5.4 0.0 2.0
19:49 9.0 8.9 99 1023.1 4.5 S 5.4 0.0 2.0
19:50 9.0 8.9 99 1023.2 4.5 SE 5.4 0.0 2.0
19:51 9.0 8.9 99 1023.0 3.1 S 5.4 0.0 2.0
19:52 9.0 8.9 99 1023.0 3.1 SE 5.4 0.0 2.0
19:53 9.0 8.9 99 1022.8 3.8 S 5.4 0.0 2.0
19:54 9.0 8.9 99 1023.0 5.4 S 5.4 0.0 2.0
19:55 9.0 8.9 99 1023.1 5.4 SE 5.4 0.0 2.0
19:56 9.0 8.9 99 1023.0 4.5 S 5.4 0.0 2.0
19:57 9.0 8.9 99 1023.0 4.5 S 5.4 0.0 2.0
19:58 9.0 8.9 99 1022.9 3.8 S 5.4 0.0 2.0
19:59 9.0 8.9 99 1022.9 5.4 S 5.4 0.0 2.0
20:00 9.0 8.9 99 1022.9 6.0 SE 6.0 0.0 2.0
20:01 9.0 8.9 99 1023.0 5.4 S 6.0 0.0 2.0
20:02 9.0 8.9 99 1022.9 4.5 WSW 6.0 0.0 2.0
20:04 9.0 8.9 99 1022.9 6.0 S 6.0 0.0 2.0
20:05 9.0 8.9 99 1022.8 5.4 SE 6.0 0.0 2.0
20:06 9.0 8.9 99 1022.7 6.0 S 6.0 0.0 2.0
20:07 9.0 8.9 99 1022.8 6.9 SE 6.9 0.0 2.0
20:08 9.0 8.9 99 1022.9 6.9 S 6.9 0.0 2.0
20:09 9.0 8.9 99 1023.0 6.0 WSW 6.9 0.0 2.0
20:10 9.0 8.9 99 1022.8 6.0 SE 6.9 0.0 2.0
20:11 9.0 8.9 99 1022.8 4.5 S 6.9 0.0 2.0
20:12 9.0 8.9 99 1022.8 4.5 S 6.9 0.0 2.0
20:13 9.0 8.9 99 1022.9 3.8 S 6.9 0.0 2.0
20:14 9.0 8.9 99 1022.7 5.4 WSW 6.9 0.0 2.0
20:15 9.0 8.9 99 1022.9 4.5 S 6.9 0.0 2.0
20:16 9.0 8.9 99 1022.8 3.8 SE 6.9 0.0 2.0
20:17 9.0 8.9 99 1022.5 5.4 SE 6.9 0.0 2.0
20:18 9.0 8.9 99 1022.9 7.6 S 7.6 0.0 2.0
20:19 9.0 8.9 99 1022.9 7.6 S 7.6 0.0 2.0
20:20 9.0 8.9 99 1023.0 6.9 SE 7.6 0.0 2.0
20:21 9.0 8.9 99 1022.8 5.4 S 7.6 0.0 2.0
20:23 9.0 8.9 99 1022.7 5.4 E 7.6 0.8 2.0
20:24 9.0 8.9 99 1022.6 4.5 S 7.6 0.8 2.0
20:25 9.0 8.9 99 1023.0 5.4 S 7.6 0.8 2.0
20:26 9.0 8.9 99 1022.8 5.4 S 7.6 0.8 2.0
20:27 9.0 8.9 99 1022.7 4.5 S 7.6 0.0 2.0
20:28 9.0 8.9 99 1022.7 6.9 SE 7.6 0.8 2.1
20:29 9.0 8.9 99 1022.7 7.6 S 7.6 0.8 2.1
20:30 9.0 8.9 99 1022.7 7.6 SE 7.6 0.8 2.1
20:31 9.0 8.9 99 1022.5 5.4 SE 7.6 0.8 2.1
20:32 9.0 8.9 99 1022.5 5.4 SE 7.6 1.5 2.1
20:33 9.0 8.9 99 1022.7 5.4 S 7.6 0.8 2.1
20:34 9.0 8.9 99 1022.7 3.8 SE 7.6 1.5 2.2
20:35 9.0 8.9 99 1022.6 6.0 S 7.6 1.5 2.2
20:36 9.0 8.9 99 1022.7 6.0 SE 7.6 1.5 2.2
20:37 9.0 8.9 99 1022.4 5.4 SE 7.6 0.8 2.2
20:38 9.0 8.9 99 1022.2 4.5 E 7.6 0.8 2.2
20:39 9.0 8.9 99 1022.3 5.4 S 7.6 0.0 2.2
20:40 9.0 8.9 99 1022.4 6.0 S 7.6 0.8 2.3
20:42 9.0 8.9 99 1022.3 5.4 SE 7.6 0.8 2.3
20:43 8.9 8.8 99 1022.4 4.5 S 7.6 0.8 2.3
20:44 9.0 8.9 99 1022.5 6.9 WSW 7.6 0.8 2.3
20:45 9.0 8.9 99 1022.5 6.9 WSW 7.6 0.8 2.3
20:46 9.0 8.9 99 1022.6 4.5 S 7.6 0.8 2.3
20:47 9.0 8.9 99 1022.4 5.4 S 7.6 0.8 2.3
20:48 9.0 8.9 99 1022.5 7.6 SE 7.6 0.8 2.3
20:49 9.0 8.9 99 1022.4 4.5 S 7.6 0.8 2.3
20:50 9.0 8.9 99 1022.4 5.4 SE 7.6 0.0 2.3
20:51 9.0 8.9 99 1022.4 4.5 SE 7.6 0.0 2.3
20:52 9.0 8.9 99 1022.4 5.4 E 7.6 0.0 2.3
20:53 9.0 8.9 99 1022.4 5.4 SE 7.6 0.0 2.3
20:54 9.0 8.9 99 1022.4 7.6 SE 7.6 0.8 2.4
20:55 9.0 8.9 99 1022.4 8.3 SE 8.3 0.8 2.4
20:56 9.0 8.9 99 1022.3 5.4 SE 8.3 0.8 2.4
20:57 9.0 8.9 99 1022.4 6.9 SE 8.3 0.8 2.4
20:59 9.0 8.9 99 1022.3 5.4 SE 8.3 0.8 2.5
21:00 9.0 8.9 99 1022.5 5.4 S 8.3 0.8 2.5
21:01 9.0 8.9 99 1022.5 3.8 WSW 8.3 0.8 2.5
21:02 9.0 8.9 99 1022.5 4.5 SE 8.3 0.8 2.5
21:03 9.1 9.0 99 1022.5 6.0 SE 8.3 0.8 2.5
21:04 9.0 8.9 99 1022.5 5.4 S 8.3 0.0 2.5
21:05 9.0 8.9 99 1022.4 5.4 S 8.3 0.0 2.5
21:06 9.0 8.9 99 1022.3 6.0 SE 6.9 0.0 2.5
21:07 9.1 9.0 99 1022.5 6.0 SE 6.9 0.0 2.5
21:08 9.1 9.0 99 1022.6 5.4 S 6.0 0.0 2.5
21:09 9.0 8.9 99 1022.4 4.5 ESE 6.0 0.0 2.5
21:10 9.1 9.0 99 1022.4 3.8 S 6.0 0.8 2.5
21:11 9.0 8.9 99 1022.4 6.0 SE 6.0 0.8 2.5
21:12 9.1 9.0 99 1022.5 4.5 S 6.0 0.8 2.5
21:13 9.0 8.9 99 1022.4 3.8 SE 6.0 0.8 2.5
21:14 9.1 9.0 99 1022.4 3.8 SE 6.0 0.8 2.5
21:15 9.1 9.0 99 1022.4 6.0 S 6.0 0.0 2.5
21:16 9.1 9.0 99 1022.4 4.5 S 6.0 0.0 2.6
21:17 9.1 9.0 99 1022.4 5.4 S 6.0 0.8 2.6
21:19 9.1 9.0 99 1022.5 6.9 SE 6.9 0.8 2.6
21:20 9.1 9.0 99 1022.3 6.9 S 6.9 0.8 2.6
21:21 9.1 9.0 99 1022.4 6.0 SE 6.9 0.8 2.6
21:22 9.1 9.0 99 1022.4 5.4 SE 6.9 0.0 2.6
21:23 9.1 9.0 99 1022.4 5.4 S 6.9 0.0 2.6
21:24 9.1 9.0 99 1022.4 5.4 SE 6.9 0.8 2.6
21:25 9.1 9.0 99 1022.4 5.4 SE 6.9 0.8 2.6
21:26 9.2 9.1 99 1022.3 5.4 ESE 6.9 0.8 2.6
21:27 9.2 9.1 99 1022.4 6.0 S 6.9 0.8 2.6
21:28 9.2 9.1 99 1022.3 3.8 SE 6.9 0.8 2.6
21:29 9.2 9.1 99 1022.2 4.5 SE 6.9 0.0 2.6
21:30 9.2 9.1 99 1022.1 3.8 SE 6.9 0.0 2.7
21:31 9.2 9.1 99 1022.1 6.9 S 6.9 0.8 2.7
21:32 9.3 9.2 99 1022.2 6.0 S 6.9 0.8 2.7
21:33 9.3 9.2 99 1022.2 5.4 S 6.9 0.8 2.7
21:34 9.3 9.2 99 1022.2 3.8 S 6.9 0.8 2.7
21:35 9.3 9.2 99 1022.2 9.2 S 9.2 0.8 2.7
21:36 9.3 9.2 99 1022.2 6.0 WSW 9.2 0.8 2.8
21:38 9.3 9.2 99 1022.2 5.4 S 9.2 0.8 2.8
21:39 9.4 9.3 99 1022.3 7.6 SE 9.2 0.8 2.8
21:40 9.4 9.3 99 1022.2 7.6 SE 9.2 0.8 2.8
21:41 9.4 9.3 99 1022.2 7.6 SE 9.2 0.0 2.8
21:42 9.4 9.3 99 1022.2 5.4 S 9.2 0.0 2.8
21:43 9.4 9.3 99 1022.2 6.9 S 9.2 0.8 2.8
21:44 9.4 9.3 99 1022.0 7.6 SE 9.2 0.8 2.8
21:45 9.4 9.3 99 1022.2 5.4 S 9.2 0.8 2.8
21:46 9.5 9.4 99 1022.3 7.6 S 7.6 0.8 2.8
21:47 9.5 9.4 99 1022.1 6.0 S 7.6 0.8 2.8
21:48 9.5 9.4 99 1022.0 6.9 S 7.6 0.0 2.8
21:49 9.5 9.4 99 1022.1 7.6 S 7.6 0.0 2.8
21:50 9.5 9.4 99 1022.0 6.0 SE 7.6 0.0 2.8
21:51 9.6 9.5 99 1022.2 6.0 S 7.6 0.0 2.8
21:52 9.6 9.5 99 1021.9 7.6 SE 8.3 0.0 2.8
21:53 9.6 9.5 99 1022.1 6.9 S 8.3 0.0 2.8
21:54 9.6 9.5 99 1021.9 9.2 S 9.2 0.0 2.8
21:56 9.7 9.6 99 1022.1 8.3 SE 9.2 0.8 2.9
21:57 9.7 9.6 99 1022.1 8.3 SE 9.2 0.8 2.9
21:58 9.7 9.6 99 1022.0 6.9 SE 9.2 0.8 2.9
21:59 9.7 9.6 99 1022.0 9.2 S 9.2 0.8 2.9
22:00 9.8 9.7 99 1022.1 7.6 SE 9.2 0.8 2.9
22:01 9.8 9.7 99 1022.1 7.6 SE 9.2 0.0 2.9
22:02 9.8 9.7 99 1021.9 7.6 SE 9.2 0.0 2.9
22:03 9.8 9.7 99 1022.0 7.6 SE 9.2 0.0 2.9
22:04 9.8 9.7 99 1021.9 7.6 SE 9.2 0.0 2.9
22:05 9.8 9.7 99 1022.0 7.6 SE 9.2 0.0 2.9
22:06 9.9 9.8 99 1022.0 9.2 SE 9.2 0.8 3.0
22:07 10.0 9.9 99 1021.9 8.3 S 9.2 0.8 3.0
22:08 10.0 9.9 99 1021.9 8.3 S 9.2 0.8 3.0
22:09 10.0 9.9 99 1021.8 6.9 S 9.2 0.8 3.0
22:10 10.0 9.9 99 1021.7 8.3 SE 9.2 0.8 3.0
22:11 10.0 9.9 99 1021.7 6.0 S 9.2 0.0 3.0
22:12 10.1 10.0 99 1021.7 9.8 S 9.8 0.8 3.0
22:14 10.1 10.0 99 1021.7 12.1 S 12.1 0.8 3.1
22:15 10.1 10.0 99 1021.7 10.7 S 12.1 1.5 3.1
22:16 10.1 10.0 99 1021.7 10.7 WSW 12.1 1.5 3.1
22:17 10.1 10.0 99 1021.7 13.0 S 13.0 0.8 3.1
22:18 10.1 10.0 99 1021.7 10.7 SE 13.0 0.8 3.1
22:19 10.1 10.0 99 1021.7 12.1 S 13.0 0.8 3.1
22:20 10.2 10.1 99 1021.5 9.8 WSW 13.0 0.0 3.1
22:21 10.2 10.1 99 1021.5 12.1 S 13.0 0.0 3.1
22:22 10.2 10.1 99 1021.6 8.3 WSW 13.0 0.0 3.1
22:23 10.2 10.1 99 1021.6 10.7 S 13.0 0.0 3.1
22:24 10.2 10.1 99 1021.4 10.7 WSW 13.0 0.0 3.1
22:25 10.2 10.1 99 1021.4 10.7 S 13.0 0.0 3.1
22:26 10.2 10.1 99 1021.5 12.1 SE 13.0 0.0 3.1
22:27 10.2 10.1 99 1021.5 11.4 S 13.0 0.0 3.1
22:28 10.2 10.1 99 1021.5 9.8 S 15.2 0.0 3.1
22:29 10.2 10.1 99 1021.4 8.3 S 15.2 0.0 3.1
22:30 10.2 10.1 99 1021.5 12.1 S 15.2 0.8 3.1
22:31 10.3 10.2 99 1021.4 10.7 WSW 15.2 0.8 3.1
22:33 10.3 10.2 99 1021.3 7.6 S 15.2 0.8 3.1
22:34 10.3 10.2 99 1021.3 11.4 S 15.2 0.8 3.1
22:35 10.3 10.2 99 1021.4 12.1 S 15.2 0.0 3.1
22:36 10.3 10.2 99 1021.4 10.7 S 15.2 0.0 3.1
22:37 10.3 10.2 99 1021.4 10.7 S 15.2 0.0 3.1
22:38 10.3 10.2 99 1021.4 10.7 S 15.2 0.0 3.1
22:39 10.3 10.2 99 1021.4 9.8 SE 12.1 0.0 3.1
22:40 10.3 10.2 99 1021.3 9.2 S 12.1 0.0 3.1
22:41 10.3 10.2 99 1021.4 13.0 E 13.0 0.0 3.1
22:42 10.3 10.2 99 1021.4 9.8 WSW 13.0 0.0 3.2
22:43 10.3 10.2 99 1021.4 10.7 S 13.0 0.8 3.2
22:44 10.3 10.2 99 1021.4 13.0 S 13.0 0.8 3.2
22:45 10.3 10.2 99 1021.4 15.2 WSW 15.2 0.8 3.2
22:46 10.3 10.2 99 1021.4 11.4 S 15.2 0.8 3.2
22:47 10.4 10.3 99 1021.4 12.1 S 15.2 0.8 3.2
22:48 10.4 10.3 99 1021.4 12.1 S 15.2 0.0 3.2
22:49 10.4 10.3 99 1021.2 15.9 S 15.9 0.0 3.2
22:51 10.4 10.3 99 1021.3 12.1 S 15.9 0.0 3.2
22:52 10.4 10.3 99 1021.4 8.3 SE 15.9 0.8 3.3
22:53 10.4 10.3 99 1021.2 9.8 S 15.9 0.8 3.3
22:54 10.4 10.3 99 1021.3 12.1 S 15.9 0.8 3.3
22:55 10.4 10.3 99 1021.4 13.6 S 15.9 0.8 3.3
22:56 10.4 10.3 99 1021.2 12.1 S 15.9 0.8 3.3
22:57 10.4 10.3 99 1021.3 14.5 S 15.9 0.0 3.3
22:58 10.4 10.3 99 1021.3 13.0 E 15.9 0.0 3.3
22:59 10.4 10.3 99 1021.3 15.9 S 15.9 0.0 3.3
23:00 10.4 10.3 99 1021.2 13.0 S 15.9 0.0 3.3
23:01 10.4 10.3 99 1021.2 13.0 S 15.9 0.0 3.3
23:02 10.4 10.3 99 1021.1 13.0 S 15.9 0.0 3.3
23:03 10.4 10.3 99 1021.1 13.0 S 15.9 0.0 3.3
23:04 10.4 10.3 99 1021.1 15.2 S 15.9 0.0 3.3
23:05 10.4 10.3 99 1021.1 16.8 S 16.8 0.8 3.3
23:06 10.4 10.3 99 1021.0 12.1 S 16.8 0.8 3.3
23:08 10.4 10.3 99 1021.0 15.2 S 16.8 0.8 3.3
23:09 10.4 10.3 99 1021.0 13.6 S 16.8 0.8 3.3
23:10 10.4 10.3 99 1020.8 16.8 NE 16.8 0.0 3.3
23:11 10.4 10.3 99 1021.1 16.8 SE 16.8 0.0 3.3
23:12 10.4 10.3 99 1020.9 13.0 S 16.8 0.0 3.3
23:13 10.4 10.3 99 1020.9 15.2 S 16.8 0.0 3.3
23:14 10.4 10.3 99 1020.9 16.8 S 18.3 0.0 3.3
23:15 10.4 10.3 99 1020.7 9.8 S 18.3 0.0 3.3
23:16 10.4 10.3 99 1021.0 15.2 SE 18.3 0.0 3.3
23:17 10.4 10.3 99 1020.9 18.3 SE 18.3 0.0 3.3
23:18 10.4 10.3 99 1020.7 19.0 S 19.0 0.0 3.3
23:19 10.4 10.3 99 1020.8 11.4 S 19.0 0.0 3.3
23:20 10.4 10.3 99 1020.8 16.8 S 19.0 0.0 3.3
23:21 10.4 10.3 99 1020.9 13.0 S 19.0 0.0 3.3
23:22 10.4 10.3 99 1020.9 17.4 S 19.0 0.0 3.3
23:23 10.4 10.3 99 1020.9 15.9 WSW 19.0 0.0 3.3
23:24 10.4 10.3 99 1020.8 16.8 SE 19.0 0.0 3.3
23:25 10.4 10.3 99 1020.9 16.8 SE 19.0 0.0 3.3
23:26 10.4 10.3 99 1020.9 12.1 NNE 19.0 0.0 3.3
23:27 10.4 10.3 99 1020.9 13.6 WSW 19.0 0.0 3.3
23:29 10.4 10.3 99 1020.9 15.9 S 17.4 0.0 3.3
23:30 10.4 10.3 99 1020.9 17.4 S 17.4 0.0 3.3
23:31 10.4 10.3 99 1020.8 13.0 S 17.4 0.0 3.3
23:32 10.4 10.3 99 1020.9 13.0 WSW 17.4 0.0 3.3
23:33 10.4 10.3 99 1020.9 13.0 WSW 17.4 0.0 3.3
23:34 10.4 10.3 99 1020.7 13.0 S 17.4 0.0 3.3
23:35 10.4 10.3 99 1020.7 14.5 WSW 17.4 0.0 3.3
23:36 10.4 10.3 99 1020.7 14.5 S 17.4 0.0 3.3
23:37 10.4 10.3 99 1020.8 14.5 S 17.4 0.0 3.3
23:38 10.4 10.3 99 1020.7 19.7 S 19.7 0.8 3.4
23:39 10.4 10.3 99 1020.7 19.7 S 19.7 0.8 3.4
23:40 10.4 10.3 99 1020.7 12.1 S 19.7 0.8 3.4
23:41 10.4 10.3 99 1020.8 12.1 S 19.7 0.8 3.4
23:42 10.4 10.3 99 1020.6 14.5 S 19.7 0.8 3.4
23:43 10.4 10.3 99 1020.6 13.6 WSW 19.7 0.0 3.4
23:44 10.4 10.3 99 1020.5 13.6 SE 19.7 0.0 3.4
23:46 10.4 10.3 99 1020.5 20.6 WSW 20.6 0.0 3.4
23:47 10.4 10.3 99 1020.6 18.3 NNE 20.6 0.0 3.4
23:48 10.4 10.3 99 1020.4 14.5 S 20.6 0.0 3.4
23:49 10.4 10.3 99 1020.6 15.9 SE 20.6 0.0 3.4
23:50 10.4 10.3 99 1020.5 18.3 S 20.6 0.0 3.4
23:51 10.4 10.3 99 1020.5 18.3 S 20.6 0.0 3.4
23:52 10.4 10.3 99 1020.5 15.9 S 20.6 0.0 3.4
23:53 10.4 10.3 99 1020.5 11.4 S 20.6 0.0 3.4
23:54 10.4 10.3 99 1020.4 15.9 S 20.6 0.0 3.4
23:55 10.4 10.3 99 1020.4 15.9 S 20.6 0.0 3.4
23:56 10.4 10.3 99 1020.5 14.5 S 20.6 0.0 3.4
23:57 10.4 10.3 99 1020.5 15.9 SE 18.3 0.0 3.4
23:58 10.4 10.3 99 1020.4 15.2 SE 18.3 0.0 3.4
23:59 10.4 10.3 99 1020.4 19.7 S 19.7 0.0 3.4

 

 

UK - WEATHER STATION TOPSITES - UK World Weather Websites

Copyright © Carnkie Weather 2009 - 2020.